AKU204 RJTT-NZAA

Flight info

Callsign AKU204
Flight time N/A
Altitude 37000
Route OPPAR UTIBO Y821 DAGDA A337 TEGOD DCT 20N146E 15N150E/N0489F390 10N152E 05N154E 00N156E DCT PONOK B452 HN A597 ADNUG/N0485F410 A597 DUGAN
Aircraft A359/H-SDE2E3GHIJ3J4J5LM1ORWXY/LB1D1

Departure

Time 2026-02-17 11:11
Airport Tokyo Haneda International Airport (RJTT)

Arrival

Time N/A
Airport Auckland International Airport (NZAA)
Time Latitude Longitude Altitude Speed Heading
2026-02-17 11:08 35.54191 139.78439 64 ft 27 kts 150°
2026-02-17 11:09 35.54028 139.78553 64 ft 26 kts 150°
2026-02-17 11:09 35.53872 139.78669 70 ft 26 kts 148°
2026-02-17 11:09 35.53745 139.78725 69 ft 6 kts 206°
2026-02-17 11:09 35.53728 139.78685 69 ft 10 kts 244°
2026-02-17 11:10 35.53693 139.78568 64 ft 13 kts 276°
2026-02-17 11:10 35.53738 139.78509 64 ft 10 kts 327°
2026-02-17 11:10 35.53799 139.78464 66 ft 11 kts 329°
2026-02-17 11:11 35.54519 139.77956 60 ft 119 kts 330°
2026-02-17 11:11 35.55403 139.77324 103 ft 168 kts 332°
2026-02-17 11:11 35.56424 139.76571 666 ft 171 kts 332°
2026-02-17 11:11 35.57433 139.75920 1560 ft 156 kts 347°
2026-02-17 11:12 35.58434 139.76042 1893 ft 154 kts 36°
2026-02-17 11:12 35.58950 139.77283 1610 ft 192 kts 91°
2026-02-17 11:12 35.58515 139.78935 1790 ft 214 kts 112°
2026-02-17 11:12 35.57935 139.80701 2169 ft 229 kts 110°
2026-02-17 11:13 35.57328 139.82551 2744 ft 237 kts 111°
2026-02-17 11:13 35.56683 139.84438 3385 ft 242 kts 113°
2026-02-17 11:13 35.56000 139.86355 3970 ft 249 kts 115°
2026-02-17 11:13 35.55280 139.88324 4512 ft 257 kts 116°
2026-02-17 11:14 35.54532 139.90348 5032 ft 265 kts 116°
2026-02-17 11:14 35.53624 139.92326 5559 ft 268 kts 136°
2026-02-17 11:14 35.52059 139.93473 6152 ft 262 kts 170°
2026-02-17 11:15 35.48690 139.92581 7425 ft 254 kts 202°
2026-02-17 11:15 35.46905 139.92373 8022 ft 263 kts 183°
2026-02-17 11:15 35.45097 139.92129 8627 ft 262 kts 197°
2026-02-17 11:15 35.43418 139.91307 9264 ft 259 kts 215°
2026-02-17 11:16 35.42134 139.89805 9905 ft 256 kts 238°
2026-02-17 11:16 35.41529 139.87752 10330 ft 264 kts 265°
2026-02-17 11:16 35.41644 139.85435 10608 ft 280 kts 275°
2026-02-17 11:16 35.41918 139.83018 10907 ft 294 kts 276°
2026-02-17 11:17 35.42160 139.80478 11165 ft 306 kts 271°
2026-02-17 11:17 35.41902 139.77855 11393 ft 317 kts 252°
2026-02-17 11:17 35.40763 139.75491 11628 ft 333 kts 229°
2026-02-17 11:17 35.38822 139.73847 11955 ft 351 kts 207°
2026-02-17 11:18 35.36385 139.73267 12408 ft 367 kts 185°
2026-02-17 11:18 35.33816 139.73718 12855 ft 381 kts 172°
2026-02-17 11:18 35.31268 139.74732 13269 ft 389 kts 166°
2026-02-17 11:19 35.26177 139.77219 14100 ft 398 kts 165°
2026-02-17 11:19 35.23781 139.78337 14469 ft 399 kts 167°
2026-02-17 11:19 35.21062 139.79515 14901 ft 401 kts 168°
2026-02-17 11:19 35.18438 139.80578 15315 ft 402 kts 169°
2026-02-17 11:20 35.15734 139.81623 15737 ft 404 kts 170°
2026-02-17 11:20 35.13132 139.82603 16156 ft 406 kts 171°
2026-02-17 11:20 35.10417 139.83616 16574 ft 408 kts 171°
2026-02-17 11:20 35.07691 139.84633 16988 ft 411 kts 171°
2026-02-17 11:21 35.04950 139.85659 17414 ft 413 kts 171°
2026-02-17 11:21 35.02198 139.86693 17808 ft 416 kts 171°
2026-02-17 11:21 34.99428 139.87776 18209 ft 422 kts 168°
2026-02-17 11:21 34.96733 139.89313 18567 ft 435 kts 157°
2026-02-17 11:22 34.94282 139.91576 18864 ft 453 kts 142°
2026-02-17 11:22 34.92269 139.94597 19182 ft 465 kts 130°
2026-02-17 11:22 34.90517 139.98006 19513 ft 471 kts 125°
2026-02-17 11:23 34.87416 140.05064 20124 ft 479 kts 122°
2026-02-17 11:23 34.85870 140.08724 20450 ft 482 kts 122°
2026-02-17 11:23 34.84335 140.12306 20741 ft 484 kts 123°
2026-02-17 11:23 34.82751 140.15933 21049 ft 487 kts 123°
2026-02-17 11:24 34.81135 140.19570 21358 ft 489 kts 123°
2026-02-17 11:24 34.79500 140.23207 21678 ft 492 kts 124°
2026-02-17 11:24 34.77844 140.26864 21998 ft 494 kts 124°
2026-02-17 11:24 34.76177 140.30535 22301 ft 497 kts 124°
2026-02-17 11:25 34.74503 140.34215 22605 ft 500 kts 124°
2026-02-17 11:25 34.73386 140.36670 22811 ft 502 kts 124°
2026-02-17 11:25 34.71117 140.41656 23214 ft 505 kts 124°
2026-02-17 11:25 34.69987 140.44138 23421 ft 507 kts 124°
2026-02-17 11:26 34.68254 140.47942 23713 ft 510 kts 124°
2026-02-17 11:26 34.66552 140.51677 23956 ft 513 kts 124°
2026-02-17 11:26 34.64800 140.55516 24212 ft 515 kts 124°
2026-02-17 11:27 34.61325 140.63117 24702 ft 521 kts 124°
2026-02-17 11:27 34.59560 140.66970 24946 ft 523 kts 124°
2026-02-17 11:27 34.57791 140.70831 25191 ft 526 kts 124°
2026-02-17 11:27 34.56006 140.74718 25431 ft 528 kts 124°
2026-02-17 11:28 34.54212 140.78623 25679 ft 531 kts 124°
2026-02-17 11:28 34.52414 140.82533 25929 ft 533 kts 124°
2026-02-17 11:28 34.50601 140.86470 26179 ft 536 kts 125°
2026-02-17 11:28 34.48779 140.90423 26417 ft 538 kts 125°
2026-02-17 11:29 34.46946 140.94394 26653 ft 541 kts 125°
2026-02-17 11:29 34.45109 140.98370 26906 ft 543 kts 125°
2026-02-17 11:29 34.43257 141.02373 27149 ft 546 kts 125°
2026-02-17 11:29 34.41396 141.06392 27388 ft 548 kts 125°
2026-02-17 11:30 34.39524 141.10429 27623 ft 551 kts 125°
2026-02-17 11:30 34.37646 141.14474 27844 ft 554 kts 125°
2026-02-17 11:30 34.35753 141.18547 28078 ft 556 kts 125°
2026-02-17 11:31 34.31937 141.26742 28534 ft 561 kts 126°
2026-02-17 11:31 34.30020 141.30853 28756 ft 563 kts 126°
2026-02-17 11:31 34.28089 141.34990 28965 ft 566 kts 126°
2026-02-17 11:31 34.26147 141.39144 29146 ft 569 kts 126°
2026-02-17 11:32 34.24193 141.43318 29329 ft 571 kts 126°
2026-02-17 11:32 34.22245 141.47506 29517 ft 574 kts 126°
2026-02-17 11:32 34.20295 141.51735 29703 ft 577 kts 125°
2026-02-17 11:32 34.18342 141.55986 29896 ft 580 kts 125°
2026-02-17 11:33 34.16383 141.60255 30095 ft 582 kts 125°
2026-02-17 11:33 34.14422 141.64522 30292 ft 583 kts 126°
2026-02-17 11:33 34.12444 141.68813 30431 ft 586 kts 126°
2026-02-17 11:33 34.10454 141.73121 30583 ft 588 kts 126°
2026-02-17 11:34 34.08453 141.77443 30737 ft 591 kts 126°
2026-02-17 11:34 34.06448 141.81768 30899 ft 593 kts 127°
2026-02-17 11:34 34.04428 141.86119 31046 ft 595 kts 127°
2026-02-17 11:35 34.00362 141.94862 31357 ft 600 kts 127°
2026-02-17 11:35 33.98323 141.99242 31520 ft 601 kts 127°
2026-02-17 11:35 33.96269 142.03645 31668 ft 603 kts 127°
2026-02-17 11:35 33.94208 142.08060 31828 ft 605 kts 128°
2026-02-17 11:36 33.92138 142.12486 31971 ft 607 kts 128°
2026-02-17 11:36 33.90065 142.16913 32113 ft 609 kts 128°
2026-02-17 11:36 33.87972 142.21358 32246 ft 611 kts 128°
2026-02-17 11:36 33.85779 142.25721 32360 ft 604 kts 135°
2026-02-17 11:37 33.83172 142.29572 32498 ft 586 kts 147°
2026-02-17 11:37 33.80163 142.32735 32636 ft 563 kts 159°
2026-02-17 11:37 33.76882 142.35083 32797 ft 535 kts 171°
2026-02-17 11:37 33.73492 142.36607 32983 ft 507 kts 182°
2026-02-17 11:38 33.70147 142.37554 33207 ft 496 kts 187°
2026-02-17 11:38 33.66742 142.38343 33443 ft 490 kts 188°
2026-02-17 11:38 33.63389 142.39040 33683 ft 487 kts 190°
2026-02-17 11:39 33.56752 142.40384 34116 ft 487 kts 190°
2026-02-17 11:39 33.53375 142.41090 34291 ft 487 kts 189°
2026-02-17 11:39 33.50034 142.41809 34467 ft 488 kts 189°
2026-02-17 11:39 33.46740 142.42531 34638 ft 488 kts 189°
2026-02-17 11:40 33.43403 142.43271 34825 ft 487 kts 189°
2026-02-17 11:40 33.40070 142.44013 35009 ft 487 kts 189°
2026-02-17 11:40 33.36749 142.44753 35191 ft 486 kts 189°
2026-02-17 11:40 33.33425 142.45493 35370 ft 485 kts 189°
2026-02-17 11:41 33.30106 142.46229 35552 ft 485 kts 189°
2026-02-17 11:41 33.26791 142.46963 35724 ft 484 kts 189°
2026-02-17 11:41 33.23729 142.47639 35887 ft 483 kts 189°
2026-02-17 11:41 33.20423 142.48369 36067 ft 483 kts 189°
2026-02-17 11:42 33.17089 142.49104 36234 ft 482 kts 189°
2026-02-17 11:42 33.13813 142.49825 36407 ft 482 kts 189°
2026-02-17 11:42 33.10501 142.50554 36569 ft 481 kts 189°
2026-02-17 11:43 33.03962 142.51992 36894 ft 480 kts 189°
2026-02-17 11:43 32.97353 142.53433 37005 ft 484 kts 189°
2026-02-17 11:44 32.90699 142.54876 36995 ft 490 kts 189°
2026-02-17 11:44 32.84008 142.56354 36994 ft 488 kts 188°
2026-02-17 11:45 32.77301 142.57837 36992 ft 486 kts 189°
2026-02-17 11:45 32.70684 142.59281 36991 ft 485 kts 189°
2026-02-17 11:46 32.64066 142.60717 36987 ft 485 kts 189°
2026-02-17 11:46 32.57446 142.62155 36989 ft 485 kts 189°
2026-02-17 11:47 32.47456 142.64325 36989 ft 485 kts 189°
2026-02-17 11:47 32.40842 142.65761 36987 ft 485 kts 189°
2026-02-17 11:48 32.34202 142.67198 36988 ft 484 kts 188°
2026-02-17 11:48 32.27580 142.68628 36980 ft 484 kts 188°
2026-02-17 11:49 32.20918 142.70065 36981 ft 485 kts 188°
2026-02-17 11:49 32.14304 142.71491 36989 ft 485 kts 188°
2026-02-17 11:50 32.07698 142.72911 36984 ft 485 kts 188°
2026-02-17 11:51 31.97710 142.75056 36982 ft 485 kts 188°
2026-02-17 11:51 31.91098 142.76475 36985 ft 485 kts 188°
2026-02-17 11:52 31.84415 142.77905 36989 ft 485 kts 188°
2026-02-17 11:52 31.77781 142.79324 36986 ft 485 kts 188°
2026-02-17 11:53 31.71158 142.80737 36989 ft 485 kts 188°
2026-02-17 11:53 31.64526 142.82151 36988 ft 485 kts 188°
2026-02-17 11:54 31.57884 142.83564 36988 ft 485 kts 188°
2026-02-17 11:54 31.51253 142.84973 36990 ft 486 kts 188°
2026-02-17 11:55 31.41242 142.87097 36989 ft 486 kts 188°
2026-02-17 11:55 31.34608 142.88502 37000 ft 486 kts 187°
2026-02-17 11:56 31.27925 142.89915 36997 ft 486 kts 187°
2026-02-17 11:56 31.21286 142.91317 37003 ft 486 kts 187°
2026-02-17 11:57 31.14639 142.92718 37000 ft 486 kts 187°
2026-02-17 11:57 31.07979 142.94120 37005 ft 486 kts 187°
2026-02-17 11:58 31.01342 142.95516 37010 ft 486 kts 187°
2026-02-17 11:59 30.91299 142.97623 37012 ft 487 kts 187°
2026-02-17 11:59 30.84652 142.99016 37011 ft 487 kts 187°
2026-02-17 12:00 30.77990 143.00410 37012 ft 487 kts 187°
2026-02-17 12:00 30.71321 143.01803 37024 ft 488 kts 187°
2026-02-17 12:01 30.64615 143.03202 37020 ft 488 kts 187°
2026-02-17 12:01 30.57939 143.04593 37021 ft 488 kts 187°
2026-02-17 12:02 30.51258 143.05982 37026 ft 488 kts 187°
2026-02-17 12:02 30.44561 143.07374 37029 ft 488 kts 187°
2026-02-17 12:03 30.34535 143.09453 37028 ft 489 kts 187°
2026-02-17 12:03 30.27872 143.10833 37033 ft 489 kts 186°
2026-02-17 12:04 30.21175 143.12217 37032 ft 489 kts 186°
2026-02-17 12:04 30.14464 143.13602 37041 ft 489 kts 186°
2026-02-17 12:05 30.07770 143.14982 37036 ft 489 kts 186°
2026-02-17 12:05 30.01071 143.16362 37034 ft 490 kts 186°
2026-02-17 12:06 29.94362 143.17881 37033 ft 495 kts 184°
2026-02-17 12:07 29.84233 143.20462 37038 ft 497 kts 184°
2026-02-17 12:07 29.77497 143.22138 37037 ft 496 kts 184°
2026-02-17 12:08 29.70700 143.23802 37037 ft 496 kts 184°
2026-02-17 12:08 29.63964 143.25448 37035 ft 496 kts 184°
2026-02-17 12:09 29.57184 143.27106 37039 ft 497 kts 184°
2026-02-17 12:09 29.50452 143.28750 37037 ft 497 kts 184°
2026-02-17 12:10 29.43677 143.30402 37034 ft 497 kts 184°
2026-02-17 12:10 29.36906 143.32052 37038 ft 497 kts 184°
2026-02-17 12:11 29.26797 143.34509 37040 ft 498 kts 184°
2026-02-17 12:11 29.19995 143.36160 37039 ft 498 kts 184°
2026-02-17 12:12 29.13217 143.37804 37038 ft 498 kts 184°
2026-02-17 12:12 29.07555 143.39174 37038 ft 498 kts 184°
2026-02-17 12:13 28.99678 143.41078 37039 ft 498 kts 183°
2026-02-17 12:13 28.94017 143.42444 37042 ft 498 kts 183°
2026-02-17 12:14 28.87259 143.44074 37038 ft 498 kts 183°
2026-02-17 12:15 28.77055 143.46531 37042 ft 499 kts 183°
2026-02-17 12:15 28.70239 143.48169 37048 ft 499 kts 183°
2026-02-17 12:16 28.63490 143.49789 37044 ft 499 kts 183°
2026-02-17 12:16 28.56701 143.51415 37042 ft 500 kts 183°
2026-02-17 12:17 28.49896 143.53044 37041 ft 500 kts 183°
2026-02-17 12:17 28.43043 143.54683 37044 ft 500 kts 182°
2026-02-17 12:18 28.36230 143.56310 37042 ft 500 kts 182°
2026-02-17 12:18 28.29441 143.57929 37046 ft 500 kts 182°
2026-02-17 12:19 28.19194 143.60369 37042 ft 500 kts 182°
2026-02-17 12:19 28.12396 143.61984 37056 ft 500 kts 182°
2026-02-17 12:20 28.05592 143.63599 37048 ft 500 kts 182°
2026-02-17 12:20 27.98789 143.65212 37047 ft 500 kts 182°
2026-02-17 12:21 27.92012 143.66817 37050 ft 500 kts 182°
2026-02-17 12:21 27.85223 143.68422 37053 ft 500 kts 182°
2026-02-17 12:22 27.78363 143.70041 37054 ft 500 kts 182°
2026-02-17 12:23 27.68168 143.72445 37055 ft 500 kts 182°
2026-02-17 12:23 27.61398 143.74038 37053 ft 500 kts 181°
2026-02-17 12:24 27.54552 143.75647 37053 ft 500 kts 181°
2026-02-17 12:24 27.47758 143.77242 37055 ft 500 kts 181°
2026-02-17 12:25 27.40940 143.78841 37060 ft 500 kts 181°
2026-02-17 12:25 27.34132 143.80436 37058 ft 500 kts 181°
2026-02-17 12:26 27.27309 143.82032 37058 ft 500 kts 181°
2026-02-17 12:26 27.20498 143.83624 37059 ft 500 kts 181°
2026-02-17 12:27 27.10322 143.85997 37056 ft 500 kts 181°
2026-02-17 12:27 27.03498 143.87586 37061 ft 500 kts 181°
2026-02-17 12:28 26.96708 143.89165 37059 ft 500 kts 181°
2026-02-17 12:28 26.89892 143.90749 37062 ft 499 kts 181°
2026-02-17 12:29 26.83108 143.92323 37061 ft 499 kts 181°
2026-02-17 12:29 26.76313 143.93897 37066 ft 499 kts 180°
2026-02-17 12:30 26.69488 143.95477 37063 ft 499 kts 180°
2026-02-17 12:31 26.59299 143.97832 37066 ft 499 kts 180°
2026-02-17 12:31 26.52522 143.99395 37063 ft 498 kts 180°
2026-02-17 12:32 26.45742 144.00958 37063 ft 498 kts 180°
2026-02-17 12:32 26.38963 144.02519 37065 ft 498 kts 180°
2026-02-17 12:33 26.32149 144.04086 37068 ft 498 kts 180°
2026-02-17 12:33 26.25371 144.05641 37072 ft 498 kts 180°
2026-02-17 12:34 26.18553 144.07205 37072 ft 498 kts 180°
2026-02-17 12:34 26.11779 144.08758 37071 ft 498 kts 180°
2026-02-17 12:35 26.01605 144.11085 37067 ft 498 kts 180°
2026-02-17 12:35 25.94833 144.12631 37069 ft 498 kts 179°
2026-02-17 12:36 25.88010 144.14188 37070 ft 498 kts 179°
2026-02-17 12:36 25.81230 144.15733 37066 ft 498 kts 179°
2026-02-17 12:37 25.74407 144.17286 37067 ft 498 kts 179°
2026-02-17 12:37 25.67621 144.18829 37071 ft 498 kts 179°
2026-02-17 12:38 25.60849 144.20367 37065 ft 498 kts 179°
2026-02-17 12:39 25.50641 144.22682 37067 ft 499 kts 179°
2026-02-17 12:39 25.43848 144.24220 37064 ft 499 kts 179°
2026-02-17 12:40 25.37077 144.25751 37064 ft 499 kts 179°
2026-02-17 12:40 25.30281 144.27287 37069 ft 499 kts 179°
2026-02-17 12:41 25.23484 144.28821 37068 ft 499 kts 179°
2026-02-17 12:41 25.16698 144.30350 37070 ft 499 kts 179°
2026-02-17 12:42 25.09856 144.31891 37063 ft 499 kts 179°
2026-02-17 12:42 25.03077 144.33416 37070 ft 499 kts 179°
2026-02-17 12:43 24.92875 144.35684 37065 ft 499 kts 179°
2026-02-17 12:43 24.86082 144.37174 37067 ft 499 kts 179°
2026-02-17 12:44 24.79257 144.38673 37069 ft 499 kts 178°
2026-02-17 12:44 24.72477 144.40163 37072 ft 499 kts 178°
2026-02-17 12:45 24.65617 144.41669 37073 ft 499 kts 178°
2026-02-17 12:45 24.58815 144.43161 37066 ft 499 kts 178°
2026-02-17 12:46 24.52003 144.44653 37073 ft 499 kts 178°
2026-02-17 12:47 24.41774 144.46890 37066 ft 500 kts 178°
2026-02-17 12:47 24.34965 144.48377 37065 ft 500 kts 178°
2026-02-17 12:48 24.28164 144.49861 37066 ft 500 kts 178°
2026-02-17 12:48 24.21309 144.51355 37066 ft 500 kts 178°
2026-02-17 12:49 24.14510 144.52836 37068 ft 500 kts 178°
2026-02-17 12:49 24.07648 144.54328 37068 ft 501 kts 178°
2026-02-17 12:50 24.00865 144.55802 37066 ft 500 kts 178°
2026-02-17 12:50 23.93994 144.57293 37063 ft 501 kts 177°
2026-02-17 12:51 23.83733 144.59516 37065 ft 501 kts 177°
2026-02-17 12:51 23.76922 144.60990 37065 ft 501 kts 177°
2026-02-17 12:52 23.70098 144.62465 37062 ft 501 kts 177°
2026-02-17 12:52 23.63223 144.63949 37066 ft 501 kts 177°
2026-02-17 12:53 23.56381 144.65426 37060 ft 502 kts 177°
2026-02-17 12:53 23.49531 144.66902 37057 ft 502 kts 177°
2026-02-17 12:54 23.42699 144.68373 37063 ft 502 kts 176°
2026-02-17 12:55 23.32442 144.70577 37062 ft 503 kts 176°
2026-02-17 12:55 23.25591 144.72048 37055 ft 503 kts 176°
2026-02-17 12:56 23.18706 144.73525 37057 ft 503 kts 176°
2026-02-17 12:56 23.11795 144.75006 37055 ft 503 kts 176°
2026-02-17 12:57 23.04933 144.76475 37054 ft 504 kts 176°
2026-02-17 12:57 22.98051 144.77946 37053 ft 504 kts 176°
2026-02-17 12:58 22.91177 144.79415 37056 ft 504 kts 176°
2026-02-17 12:58 22.84316 144.80879 37051 ft 504 kts 176°
2026-02-17 12:59 22.73988 144.83079 37053 ft 505 kts 176°
2026-02-17 12:59 22.67104 144.84544 37046 ft 505 kts 176°
2026-02-17 13:00 22.61363 144.85765 37045 ft 505 kts 175°
2026-02-17 13:00 22.54464 144.87231 37048 ft 505 kts 175°
2026-02-17 13:01 22.47543 144.88699 37049 ft 505 kts 175°
2026-02-17 13:01 22.40649 144.90161 37050 ft 505 kts 175°
2026-02-17 13:02 22.33782 144.91615 37046 ft 505 kts 175°
2026-02-17 13:03 22.23426 144.93806 37047 ft 505 kts 175°
2026-02-17 13:03 22.16550 144.95258 37046 ft 505 kts 175°
2026-02-17 13:04 22.09683 144.96707 37046 ft 505 kts 175°
2026-02-17 13:04 22.02763 144.98166 37043 ft 504 kts 175°
2026-02-17 13:05 21.95892 144.99613 37042 ft 505 kts 175°
2026-02-17 13:05 21.89028 145.01057 37042 ft 505 kts 175°
2026-02-17 13:06 21.82137 145.02506 37041 ft 505 kts 175°
2026-02-17 13:06 21.75198 145.03963 37038 ft 505 kts 175°
2026-02-17 13:07 21.64903 145.06122 37039 ft 505 kts 175°
2026-02-17 13:07 21.58010 145.07566 37034 ft 505 kts 175°
2026-02-17 13:08 21.51123 145.09007 37033 ft 505 kts 174°
2026-02-17 13:08 21.44183 145.10458 37035 ft 505 kts 174°
2026-02-17 13:09 21.37296 145.11897 37033 ft 505 kts 174°
2026-02-17 13:09 21.30419 145.13331 37036 ft 505 kts 174°
2026-02-17 13:10 21.23535 145.14767 37035 ft 505 kts 174°
2026-02-17 13:11 21.13184 145.16923 37030 ft 505 kts 174°
2026-02-17 13:11 21.06306 145.18354 37031 ft 505 kts 174°
2026-02-17 13:12 20.99634 145.20353 37030 ft 515 kts 160°
2026-02-17 13:12 20.96488 145.22293 37033 ft 522 kts 148°
2026-02-17 13:12 20.93635 145.24651 37028 ft 524 kts 145°
2026-02-17 13:13 20.87860 145.29501 37029 ft 524 kts 146°
2026-02-17 13:13 20.82048 145.34206 37031 ft 524 kts 147°
2026-02-17 13:14 20.76216 145.38892 37030 ft 524 kts 147°
2026-02-17 13:14 20.70420 145.43561 37028 ft 523 kts 147°
2026-02-17 13:15 20.61704 145.50583 37027 ft 523 kts 147°
2026-02-17 13:15 20.55872 145.55275 37028 ft 523 kts 147°
2026-02-17 13:16 20.50066 145.59941 37025 ft 523 kts 147°
2026-02-17 13:16 20.44283 145.64584 37027 ft 524 kts 147°
2026-02-17 13:17 20.38416 145.69290 37024 ft 524 kts 147°
2026-02-17 13:17 20.32620 145.73934 37028 ft 524 kts 147°
2026-02-17 13:18 20.26819 145.78579 37023 ft 524 kts 147°
2026-02-17 13:19 20.18067 145.85577 37027 ft 524 kts 147°
2026-02-17 13:19 20.12238 145.90232 37021 ft 524 kts 147°
2026-02-17 13:20 20.06389 145.94899 37025 ft 524 kts 147°
2026-02-17 13:20 20.00573 145.99536 37020 ft 524 kts 147°
2026-02-17 13:21 19.94797 146.04244 37015 ft 525 kts 145°
2026-02-17 13:21 19.89068 146.09040 37038 ft 525 kts 145°
2026-02-17 13:22 19.83320 146.13826 37033 ft 525 kts 146°
2026-02-17 13:22 19.77575 146.18580 37018 ft 525 kts 146°
2026-02-17 13:23 19.68926 146.25728 37028 ft 525 kts 146°
2026-02-17 13:23 19.63138 146.30508 37018 ft 525 kts 146°
2026-02-17 13:24 19.57367 146.35269 37027 ft 525 kts 146°
2026-02-17 13:24 19.51618 146.40007 37021 ft 525 kts 146°
2026-02-17 13:25 19.45861 146.44748 37029 ft 525 kts 145°
2026-02-17 13:25 19.40097 146.49490 37030 ft 525 kts 145°
2026-02-17 13:26 19.34312 146.54245 37022 ft 525 kts 145°
2026-02-17 13:27 19.25648 146.61358 37024 ft 525 kts 145°
2026-02-17 13:27 19.19891 146.66079 37025 ft 525 kts 145°
2026-02-17 13:28 19.14097 146.70826 37022 ft 525 kts 145°
2026-02-17 13:28 19.08340 146.75538 37021 ft 525 kts 145°
2026-02-17 13:29 19.02575 146.80254 37015 ft 525 kts 145°
2026-02-17 13:29 18.96802 146.84971 37022 ft 525 kts 145°
2026-02-17 13:30 18.91018 146.89692 37021 ft 525 kts 145°
2026-02-17 13:30 18.85250 146.94397 37018 ft 525 kts 145°
2026-02-17 13:31 18.76538 147.01495 37010 ft 525 kts 145°
2026-02-17 13:31 18.70775 147.06185 37009 ft 525 kts 145°
2026-02-17 13:32 18.64999 147.10881 37012 ft 524 kts 145°
2026-02-17 13:32 18.59222 147.15574 37010 ft 524 kts 145°
2026-02-17 13:33 18.53463 147.20249 37003 ft 524 kts 145°
2026-02-17 13:33 18.47642 147.24969 37006 ft 524 kts 145°
2026-02-17 13:34 18.41906 147.29617 37009 ft 524 kts 145°
2026-02-17 13:35 18.33200 147.36662 37004 ft 524 kts 145°
2026-02-17 13:35 18.27434 147.41324 37003 ft 524 kts 145°
2026-02-17 13:36 18.21658 147.45990 37003 ft 524 kts 145°
2026-02-17 13:36 18.15877 147.50656 37001 ft 524 kts 145°
2026-02-17 13:37 18.10077 147.55333 36998 ft 524 kts 145°
2026-02-17 13:37 18.04313 147.59977 36999 ft 524 kts 145°
2026-02-17 13:38 17.98541 147.64624 36999 ft 524 kts 145°
2026-02-17 13:38 17.92748 147.69283 36995 ft 524 kts 145°
2026-02-17 13:39 17.84051 147.76272 36993 ft 524 kts 145°
2026-02-17 13:39 17.78280 147.80903 36991 ft 524 kts 145°
2026-02-17 13:40 17.72512 147.85529 36987 ft 524 kts 145°
2026-02-17 13:40 17.66684 147.90199 36987 ft 524 kts 145°
2026-02-17 13:41 17.60993 147.94756 36987 ft 523 kts 145°
2026-02-17 13:41 17.55226 147.99369 36989 ft 523 kts 145°
2026-02-17 13:42 17.49415 148.04014 36985 ft 523 kts 145°
2026-02-17 13:43 17.40741 148.10940 36982 ft 523 kts 145°
2026-02-17 13:43 17.34984 148.15533 36984 ft 523 kts 145°
2026-02-17 13:44 17.29207 148.20137 36976 ft 522 kts 145°
2026-02-17 13:44 17.23391 148.24769 36977 ft 522 kts 145°
2026-02-17 13:45 17.17631 148.29353 36983 ft 522 kts 145°
2026-02-17 13:45 17.11855 148.33945 36979 ft 522 kts 145°
2026-02-17 13:46 17.06088 148.38527 36977 ft 522 kts 145°
2026-02-17 13:46 17.00289 148.43131 36977 ft 522 kts 145°
2026-02-17 13:47 16.92626 148.49208 36976 ft 521 kts 145°
2026-02-17 13:47 16.85879 148.54554 36973 ft 521 kts 144°
2026-02-17 13:48 16.81064 148.58366 36973 ft 521 kts 144°
2026-02-17 13:48 16.75292 148.62933 36969 ft 521 kts 144°
2026-02-17 13:49 16.69485 148.67523 36969 ft 521 kts 144°
2026-02-17 13:49 16.63714 148.72082 36980 ft 521 kts 144°
2026-02-17 13:50 16.57946 148.76634 36957 ft 521 kts 144°
2026-02-17 13:51 16.49320 148.83436 36978 ft 520 kts 144°
2026-02-17 13:51 16.43557 148.87976 36964 ft 520 kts 144°
2026-02-17 13:52 16.37791 148.92515 36960 ft 520 kts 144°
2026-02-17 13:52 16.31994 148.97075 36975 ft 519 kts 144°
2026-02-17 13:53 16.26246 149.01593 36955 ft 520 kts 144°
2026-02-17 13:53 16.20482 149.06120 36964 ft 519 kts 144°
2026-02-17 13:54 16.14728 149.10636 36969 ft 519 kts 144°
2026-02-17 13:54 16.08946 149.15170 36964 ft 518 kts 144°
2026-02-17 13:55 16.00334 149.21918 36956 ft 518 kts 144°
2026-02-17 13:55 15.94592 149.26412 36955 ft 518 kts 144°
2026-02-17 13:56 15.88808 149.30937 36956 ft 517 kts 144°
2026-02-17 13:56 15.83065 149.35426 36957 ft 517 kts 144°
2026-02-17 13:57 15.77363 149.39879 36954 ft 516 kts 144°
2026-02-17 13:57 15.71588 149.44386 36961 ft 516 kts 144°
2026-02-17 13:58 15.65856 149.48856 36951 ft 516 kts 144°
2026-02-17 13:59 15.57265 149.55551 36956 ft 515 kts 144°
2026-02-17 13:59 15.51542 149.60006 36956 ft 515 kts 144°
2026-02-17 14:00 15.45793 149.64479 36955 ft 515 kts 144°
2026-02-17 14:00 15.40125 149.68886 36950 ft 515 kts 144°
2026-02-17 14:01 15.34440 149.73302 36955 ft 515 kts 144°
2026-02-17 14:01 15.28689 149.77767 36952 ft 515 kts 144°
2026-02-17 14:02 15.22995 149.82184 36946 ft 515 kts 144°
2026-02-17 14:02 15.17291 149.86607 36950 ft 515 kts 144°
2026-02-17 14:03 15.08766 149.93210 36949 ft 515 kts 144°
2026-02-17 14:03 15.03004 149.97669 36954 ft 515 kts 144°
2026-02-17 14:04 14.96941 150.01380 37144 ft 511 kts 159°
2026-02-17 14:04 14.93637 150.02730 37393 ft 509 kts 160°
2026-02-17 14:04 14.90319 150.04029 37610 ft 508 kts 161°
2026-02-17 14:05 14.87056 150.05313 37815 ft 508 kts 160°
2026-02-17 14:05 14.83742 150.06639 38023 ft 507 kts 160°
2026-02-17 14:05 14.80482 150.07962 38209 ft 507 kts 160°
2026-02-17 14:05 14.77179 150.09310 38403 ft 506 kts 160°
2026-02-17 14:06 14.73898 150.10652 38575 ft 506 kts 160°
2026-02-17 14:06 14.70652 150.11979 38730 ft 506 kts 160°
2026-02-17 14:06 14.67403 150.13305 38877 ft 505 kts 160°
2026-02-17 14:07 14.60802 150.15995 38943 ft 509 kts 160°
2026-02-17 14:07 14.54232 150.18670 38940 ft 509 kts 160°
2026-02-17 14:08 14.47651 150.21349 38939 ft 507 kts 160°
2026-02-17 14:08 14.41124 150.24004 38939 ft 506 kts 159°
2026-02-17 14:09 14.34586 150.26661 38936 ft 506 kts 159°
2026-02-17 14:09 14.28004 150.29335 38937 ft 507 kts 159°
2026-02-17 14:10 14.21441 150.31999 38935 ft 507 kts 159°
2026-02-17 14:10 14.14861 150.34668 38937 ft 507 kts 159°
2026-02-17 14:11 14.05073 150.38637 38933 ft 507 kts 159°
2026-02-17 14:11 13.98519 150.41292 38937 ft 506 kts 159°
2026-02-17 14:12 13.91939 150.43954 38936 ft 506 kts 159°
2026-02-17 14:12 13.85366 150.46615 38932 ft 506 kts 159°
2026-02-17 14:13 13.78843 150.49254 38933 ft 506 kts 159°
2026-02-17 14:13 13.72303 150.51896 38931 ft 506 kts 159°
2026-02-17 14:14 13.65720 150.54555 38933 ft 506 kts 159°
2026-02-17 14:15 13.55916 150.58511 38931 ft 506 kts 159°
2026-02-17 14:15 13.49384 150.61145 38932 ft 505 kts 159°
2026-02-17 14:16 13.42807 150.63796 38928 ft 505 kts 159°
2026-02-17 14:16 13.36269 150.66429 38929 ft 505 kts 159°
2026-02-17 14:17 13.29729 150.69062 38926 ft 505 kts 159°
2026-02-17 14:17 13.23203 150.71687 38926 ft 505 kts 159°
2026-02-17 14:18 13.16689 150.74306 38924 ft 504 kts 159°
2026-02-17 14:18 13.10112 150.76950 38926 ft 504 kts 159°
2026-02-17 14:19 13.00325 150.80880 38927 ft 504 kts 159°
2026-02-17 14:19 12.93846 150.83479 38924 ft 504 kts 159°
2026-02-17 14:20 12.87288 150.86109 38923 ft 504 kts 159°
2026-02-17 14:20 12.80798 150.88710 38919 ft 504 kts 159°
2026-02-17 14:21 12.74252 150.91334 38921 ft 504 kts 159°
2026-02-17 14:21 12.67733 150.93943 38920 ft 504 kts 158°
2026-02-17 14:22 12.57924 150.97867 38918 ft 504 kts 158°
2026-02-17 14:23 12.48119 151.01787 38922 ft 504 kts 158°
2026-02-17 14:23 12.41618 151.04385 38918 ft 504 kts 158°
2026-02-17 14:24 12.35064 151.07002 38914 ft 504 kts 158°
2026-02-17 14:24 12.28544 151.09603 38914 ft 504 kts 158°
2026-02-17 14:25 12.22036 151.12200 38916 ft 504 kts 158°
2026-02-17 14:25 12.15474 151.14816 38917 ft 504 kts 158°
2026-02-17 14:26 12.08950 151.17416 38915 ft 505 kts 158°
2026-02-17 14:27 11.99162 151.21313 38915 ft 505 kts 158°
2026-02-17 14:27 11.92620 151.23916 38914 ft 505 kts 158°
2026-02-17 14:28 11.86046 151.26532 38915 ft 505 kts 158°
2026-02-17 14:28 11.79511 151.29129 38915 ft 505 kts 158°
2026-02-17 14:29 11.72972 151.31728 38913 ft 505 kts 159°
2026-02-17 14:29 11.66432 151.34325 38913 ft 506 kts 159°
2026-02-17 14:30 11.59896 151.36919 38914 ft 505 kts 159°
2026-02-17 14:31 11.46753 151.42132 38910 ft 506 kts 159°
2026-02-17 14:31 11.40325 151.44680 38908 ft 506 kts 159°
2026-02-17 14:32 11.33744 151.47286 38912 ft 506 kts 159°
2026-02-17 14:32 11.27239 151.49862 38909 ft 506 kts 159°
2026-02-17 14:33 11.20695 151.52453 38909 ft 506 kts 159°
2026-02-17 14:33 11.10874 151.56336 38907 ft 506 kts 159°
2026-02-17 14:34 11.04267 151.58947 38911 ft 506 kts 159°
2026-02-17 14:35 10.94427 151.62836 38904 ft 506 kts 159°
2026-02-17 14:35 10.87861 151.65427 38907 ft 506 kts 159°
2026-02-17 14:36 10.81316 151.68009 38904 ft 506 kts 160°
2026-02-17 14:36 10.74755 151.70598 38904 ft 506 kts 160°
2026-02-17 14:37 10.69270 151.72758 38906 ft 506 kts 160°
2026-02-17 14:37 10.61639 151.75765 38902 ft 506 kts 160°
2026-02-17 14:38 10.56161 151.77924 38901 ft 506 kts 160°
2026-02-17 14:38 10.49623 151.80498 38900 ft 506 kts 159°
2026-02-17 14:39 10.39735 151.84389 38901 ft 506 kts 160°
2026-02-17 14:39 10.33187 151.86963 38900 ft 507 kts 159°
2026-02-17 14:40 10.26623 151.89543 38900 ft 507 kts 159°
2026-02-17 14:41 10.16750 151.93422 38900 ft 507 kts 159°
2026-02-17 14:41 10.10167 151.96008 38899 ft 508 kts 159°
2026-02-17 14:42 10.03541 151.98609 38896 ft 508 kts 159°
2026-02-17 14:42 9.96987 152.01194 38897 ft 508 kts 159°
2026-02-17 14:43 9.87145 152.05199 38895 ft 508 kts 159°
2026-02-17 14:43 9.80585 152.07867 38895 ft 508 kts 159°
2026-02-17 14:44 9.73988 152.10538 38894 ft 508 kts 159°
2026-02-17 14:44 9.67423 152.13194 38889 ft 509 kts 159°
2026-02-17 14:45 9.60870 152.15845 38889 ft 509 kts 159°
2026-02-17 14:45 9.54285 152.18508 38890 ft 509 kts 159°
2026-02-17 14:46 9.47737 152.21155 38886 ft 509 kts 158°
2026-02-17 14:47 9.37871 152.25141 38891 ft 508 kts 158°
2026-02-17 14:47 9.31323 152.27786 38890 ft 509 kts 158°
2026-02-17 14:48 9.24746 152.30441 38886 ft 509 kts 158°
2026-02-17 14:48 9.18180 152.33090 38887 ft 508 kts 158°
2026-02-17 14:49 9.11572 152.35755 38891 ft 508 kts 158°
2026-02-17 14:49 9.04999 152.38406 38883 ft 508 kts 158°
2026-02-17 14:50 8.98442 152.41048 38887 ft 508 kts 158°
2026-02-17 14:50 8.91902 152.43683 38884 ft 507 kts 158°
2026-02-17 14:51 8.82054 152.47649 38880 ft 507 kts 158°
2026-02-17 14:51 8.75513 152.50281 38879 ft 507 kts 158°
2026-02-17 14:52 8.68987 152.52907 38883 ft 507 kts 158°
2026-02-17 14:52 8.62445 152.55538 38883 ft 507 kts 158°
2026-02-17 14:53 8.55848 152.58191 38880 ft 506 kts 158°
2026-02-17 14:53 8.49355 152.60801 38883 ft 506 kts 158°
2026-02-17 14:54 8.42773 152.63445 38879 ft 506 kts 158°
2026-02-17 14:55 8.33008 152.67365 38878 ft 506 kts 158°
2026-02-17 14:55 8.26410 152.70014 38876 ft 506 kts 158°
2026-02-17 14:56 8.19890 152.72630 38879 ft 506 kts 158°
2026-02-17 14:56 8.13364 152.75248 38875 ft 506 kts 158°
2026-02-17 14:57 8.06840 152.77864 38876 ft 506 kts 158°
2026-02-17 14:57 8.00264 152.80499 38872 ft 506 kts 158°
2026-02-17 14:58 7.93710 152.83124 38872 ft 506 kts 158°
2026-02-17 14:58 7.87189 152.85736 38869 ft 506 kts 158°
2026-02-17 14:59 7.77380 152.89665 38871 ft 506 kts 158°
2026-02-17 14:59 7.70857 152.92275 38869 ft 506 kts 158°
2026-02-17 15:00 7.64288 152.94904 38867 ft 506 kts 158°
2026-02-17 15:00 7.57791 152.97502 38867 ft 506 kts 158°
2026-02-17 15:01 7.51214 153.00131 38866 ft 506 kts 158°
2026-02-17 15:01 7.44704 153.02734 38868 ft 506 kts 158°
2026-02-17 15:02 7.38153 153.05351 38868 ft 506 kts 158°
2026-02-17 15:03 7.28346 153.09266 38867 ft 505 kts 158°
2026-02-17 15:03 7.21783 153.11887 38868 ft 506 kts 158°
2026-02-17 15:04 7.15268 153.14487 38866 ft 506 kts 158°
2026-02-17 15:04 7.08758 153.17084 38866 ft 505 kts 158°
2026-02-17 15:05 7.02207 153.19695 38859 ft 505 kts 158°
2026-02-17 15:05 6.95691 153.22293 38858 ft 504 kts 157°
2026-02-17 15:06 6.89142 153.24905 38859 ft 504 kts 157°
2026-02-17 15:06 6.82648 153.27491 38860 ft 503 kts 157°
2026-02-17 15:07 6.72909 153.31375 38857 ft 502 kts 157°
2026-02-17 15:07 6.66392 153.33970 38855 ft 502 kts 157°
2026-02-17 15:08 6.59918 153.36544 38853 ft 501 kts 157°
2026-02-17 15:08 6.53481 153.39106 38851 ft 500 kts 157°
2026-02-17 15:09 6.46996 153.41689 38855 ft 499 kts 157°
2026-02-17 15:09 6.40573 153.44243 38852 ft 498 kts 157°
2026-02-17 15:10 6.34114 153.46809 38855 ft 498 kts 157°
2026-02-17 15:11 6.24465 153.50647 38854 ft 496 kts 157°
2026-02-17 15:11 6.18057 153.53194 38854 ft 495 kts 157°
2026-02-17 15:12 6.11679 153.55726 38855 ft 495 kts 157°
2026-02-17 15:12 6.05272 153.58270 38854 ft 494 kts 157°
2026-02-17 15:13 5.98903 153.60799 38854 ft 493 kts 156°
2026-02-17 15:13 5.92520 153.63334 38855 ft 493 kts 157°
2026-02-17 15:14 5.86127 153.65872 38856 ft 492 kts 157°
2026-02-17 15:14 5.79802 153.68381 38855 ft 491 kts 157°
2026-02-17 15:15 5.70273 153.72161 38854 ft 490 kts 156°
2026-02-17 15:15 5.63901 153.74687 38851 ft 490 kts 156°
2026-02-17 15:16 5.57590 153.77189 38854 ft 489 kts 156°
2026-02-17 15:16 5.51271 153.79694 38851 ft 489 kts 156°
2026-02-17 15:17 5.44958 153.82195 38853 ft 488 kts 156°
2026-02-17 15:17 5.38665 153.84688 38849 ft 487 kts 156°
2026-02-17 15:18 5.32355 153.87188 38854 ft 486 kts 156°
2026-02-17 15:19 5.22950 153.90912 38855 ft 485 kts 156°
2026-02-17 15:19 5.16684 153.93393 38854 ft 484 kts 156°
2026-02-17 15:20 5.10429 153.95868 38854 ft 483 kts 156°
2026-02-17 15:20 5.04140 153.98357 38855 ft 483 kts 156°
2026-02-17 15:21 4.97931 154.00818 38850 ft 482 kts 155°
2026-02-17 15:21 4.91678 154.03332 38853 ft 481 kts 155°
2026-02-17 15:22 4.85491 154.05828 38854 ft 481 kts 155°
2026-02-17 15:22 4.79286 154.08324 38848 ft 480 kts 155°
2026-02-17 15:23 4.69965 154.12070 38848 ft 479 kts 155°
2026-02-17 15:23 4.63798 154.14548 38849 ft 478 kts 155°
2026-02-17 15:24 4.57629 154.17026 38848 ft 477 kts 155°
2026-02-17 15:24 4.51470 154.19500 38848 ft 477 kts 155°
2026-02-17 15:25 4.46361 154.21551 38849 ft 477 kts 155°
2026-02-17 15:25 4.40168 154.24038 38849 ft 478 kts 155°
2026-02-17 15:26 4.33993 154.26517 38849 ft 479 kts 155°
2026-02-17 15:27 4.24756 154.30224 38850 ft 479 kts 155°
2026-02-17 15:27 4.18534 154.32720 38844 ft 480 kts 155°
2026-02-17 15:28 4.12346 154.35203 38850 ft 480 kts 155°
2026-02-17 15:28 4.06153 154.37687 38849 ft 481 kts 155°
2026-02-17 15:29 3.99905 154.40193 38845 ft 481 kts 155°
2026-02-17 15:29 3.93691 154.42684 38848 ft 482 kts 155°
2026-02-17 15:30 3.87497 154.45168 38844 ft 482 kts 155°
2026-02-17 15:30 3.81239 154.47676 38844 ft 483 kts 155°
2026-02-17 15:31 3.71885 154.51425 38846 ft 483 kts 155°
2026-02-17 15:31 3.65654 154.53921 38845 ft 484 kts 155°
2026-02-17 15:32 3.59421 154.56419 38846 ft 484 kts 155°
2026-02-17 15:32 3.53129 154.58939 38848 ft 485 kts 155°
2026-02-17 15:33 3.46871 154.61445 38845 ft 485 kts 155°
2026-02-17 15:33 3.40610 154.63953 38844 ft 486 kts 155°
2026-02-17 15:34 3.34352 154.66458 38844 ft 486 kts 155°
2026-02-17 15:35 3.24938 154.70227 38841 ft 486 kts 155°
2026-02-17 15:35 3.18641 154.72747 38843 ft 486 kts 155°
2026-02-17 15:36 3.12398 154.75246 38842 ft 486 kts 155°
2026-02-17 15:36 3.06088 154.77771 38842 ft 486 kts 155°
2026-02-17 15:37 2.99818 154.80279 38843 ft 486 kts 155°
2026-02-17 15:37 2.93522 154.82798 38845 ft 486 kts 155°
2026-02-17 15:38 2.87243 154.85310 38843 ft 486 kts 155°
2026-02-17 15:38 2.80985 154.87813 38841 ft 486 kts 155°
2026-02-17 15:39 2.71572 154.91577 38845 ft 486 kts 155°
2026-02-17 15:39 2.65321 154.94077 38839 ft 486 kts 155°
2026-02-17 15:40 2.59005 154.96602 38840 ft 486 kts 155°
2026-02-17 15:40 2.52747 154.99104 38842 ft 486 kts 155°
2026-02-17 15:41 2.46491 155.01604 38840 ft 486 kts 155°
2026-02-17 15:41 2.40175 155.04128 38841 ft 486 kts 155°
2026-02-17 15:42 2.33911 155.06632 38841 ft 486 kts 155°
2026-02-17 15:43 2.24456 155.10410 38840 ft 487 kts 155°
2026-02-17 15:43 2.18213 155.12904 38842 ft 487 kts 155°
2026-02-17 15:44 2.11920 155.15419 38839 ft 487 kts 155°
2026-02-17 15:44 2.05588 155.17948 38838 ft 487 kts 155°
2026-02-17 15:45 1.99276 155.20469 38838 ft 488 kts 155°
2026-02-17 15:45 1.92981 155.22984 38839 ft 488 kts 155°
2026-02-17 15:46 1.86699 155.25492 38834 ft 488 kts 155°
2026-02-17 15:46 1.80414 155.28002 38834 ft 488 kts 155°
2026-02-17 15:47 1.70934 155.31787 38835 ft 488 kts 155°
2026-02-17 15:47 1.64636 155.34303 38835 ft 488 kts 155°
2026-02-17 15:48 1.58308 155.36829 38835 ft 488 kts 155°
2026-02-17 15:48 1.52014 155.39342 38836 ft 488 kts 155°
2026-02-17 15:49 1.45716 155.41855 38834 ft 488 kts 155°
2026-02-17 15:49 1.39422 155.44368 38836 ft 488 kts 155°
2026-02-17 15:50 1.33099 155.46892 38834 ft 488 kts 155°
2026-02-17 15:51 1.23647 155.50664 38834 ft 488 kts 155°
2026-02-17 15:51 1.17352 155.53177 38834 ft 488 kts 155°
2026-02-17 15:52 1.11028 155.55700 38832 ft 488 kts 155°
2026-02-17 15:52 1.04746 155.58207 38831 ft 487 kts 155°
2026-02-17 15:53 0.98463 155.60714 38827 ft 487 kts 155°
2026-02-17 15:53 0.92174 155.63223 38830 ft 486 kts 155°
2026-02-17 15:54 0.85894 155.65729 38830 ft 485 kts 155°
2026-02-17 15:54 0.76518 155.69470 38833 ft 485 kts 155°
2026-02-17 15:55 0.70215 155.71985 38830 ft 484 kts 155°
2026-02-17 15:55 0.63990 155.74469 38830 ft 484 kts 155°
2026-02-17 15:56 0.57708 155.76975 38827 ft 484 kts 155°
2026-02-17 15:56 0.51462 155.79467 38827 ft 484 kts 155°
2026-02-17 15:57 0.45214 155.81960 38829 ft 484 kts 155°
2026-02-17 15:57 0.38951 155.84458 38830 ft 484 kts 155°
2026-02-17 15:58 0.32713 155.86946 38831 ft 484 kts 155°
2026-02-17 15:59 0.23336 155.90687 38829 ft 484 kts 155°
2026-02-17 15:59 0.17070 155.93186 38827 ft 484 kts 155°
2026-02-17 16:00 0.10802 155.95687 38832 ft 484 kts 155°
2026-02-17 16:00 0.04577 155.98171 38829 ft 484 kts 155°
2026-02-17 16:01 -0.01661 156.00670 38828 ft 483 kts 155°
2026-02-17 16:01 -0.07839 156.03289 38826 ft 483 kts 154°
2026-02-17 16:02 -0.14027 156.05966 38825 ft 483 kts 154°
2026-02-17 16:02 -0.23311 156.09934 38825 ft 484 kts 154°
2026-02-17 16:03 -0.29483 156.12569 38834 ft 484 kts 154°
2026-02-17 16:03 -0.35657 156.15196 38830 ft 484 kts 154°
2026-02-17 16:04 -0.41840 156.17830 38827 ft 484 kts 154°
2026-02-17 16:04 -0.48066 156.20484 38825 ft 484 kts 154°
2026-02-17 16:05 -0.54245 156.23118 38824 ft 484 kts 154°
2026-02-17 16:05 -0.60468 156.25771 38829 ft 485 kts 154°
2026-02-17 16:06 -0.66681 156.28419 38826 ft 485 kts 154°
2026-02-17 16:07 -0.75981 156.32384 38824 ft 485 kts 154°
2026-02-17 16:07 -0.82185 156.35029 38826 ft 485 kts 154°
2026-02-17 16:08 -0.88391 156.37675 38827 ft 485 kts 154°
2026-02-17 16:08 -0.97656 156.41625 38829 ft 485 kts 154°
2026-02-17 16:09 -1.03892 156.44285 38824 ft 485 kts 154°
2026-02-17 16:09 -1.10094 156.46929 38827 ft 485 kts 154°
2026-02-17 16:10 -1.16302 156.49576 38826 ft 485 kts 154°
2026-02-17 16:11 -1.24532 156.53086 38824 ft 485 kts 154°
2026-02-17 16:11 -1.31801 156.56186 38826 ft 484 kts 154°
2026-02-17 16:12 -1.37964 156.58815 38826 ft 484 kts 154°
2026-02-17 16:12 -1.44157 156.61456 38825 ft 483 kts 154°
2026-02-17 16:13 -1.49316 156.63657 38827 ft 483 kts 154°
2026-02-17 16:13 -1.55535 156.66309 38826 ft 483 kts 154°
2026-02-17 16:14 -1.61711 156.68944 38825 ft 483 kts 154°
2026-02-17 16:14 -1.70955 156.72888 38830 ft 483 kts 154°
2026-02-17 16:15 -1.77099 156.75509 38830 ft 483 kts 154°
2026-02-17 16:15 -1.83320 156.78164 38828 ft 483 kts 154°
2026-02-17 16:16 -1.89479 156.80792 38829 ft 483 kts 154°
2026-02-17 16:16 -1.95640 156.83422 38830 ft 483 kts 154°
2026-02-17 16:17 -2.01841 156.86068 38830 ft 483 kts 154°
2026-02-17 16:17 -2.07997 156.88696 38830 ft 483 kts 154°
2026-02-17 16:18 -2.14156 156.91325 38831 ft 484 kts 154°
2026-02-17 16:19 -2.23448 156.95292 38829 ft 484 kts 154°
2026-02-17 17:27 -10.57563 160.56701 38843 ft 479 kts 152°
2026-02-17 17:27 -10.63630 160.59532 38848 ft 479 kts 152°
2026-02-17 17:29 -10.78732 160.66587 38841 ft 479 kts 152°
2026-02-17 17:29 -10.84810 160.69429 38843 ft 479 kts 152°
2026-02-17 17:31 -11.05966 160.79342 38850 ft 478 kts 152°
2026-02-17 17:32 -11.15013 160.83594 38845 ft 478 kts 153°
2026-02-17 17:32 -11.21066 160.86441 38850 ft 478 kts 153°
2026-02-17 17:33 -11.27107 160.89282 38849 ft 478 kts 153°
2026-02-17 17:33 -11.33129 160.92116 38853 ft 478 kts 153°
2026-02-17 17:34 -11.39199 160.94975 38849 ft 478 kts 153°
2026-02-17 17:35 -11.51247 161.00651 38851 ft 477 kts 153°
2026-02-17 17:35 -11.57285 161.03498 38846 ft 478 kts 153°
2026-02-17 17:36 -11.63323 161.06347 38854 ft 478 kts 153°
2026-02-17 17:36 -11.69321 161.09178 38850 ft 478 kts 153°
2026-02-17 17:37 -11.75369 161.12034 38849 ft 479 kts 153°
2026-02-17 17:37 -11.81405 161.14886 38853 ft 479 kts 153°
2026-02-17 17:38 -11.87491 161.17762 38849 ft 479 kts 153°
2026-02-17 17:38 -11.96543 161.22043 38854 ft 479 kts 153°
2026-02-17 17:39 -12.02557 161.24889 38855 ft 479 kts 153°
2026-02-17 17:39 -12.08627 161.27763 38852 ft 479 kts 153°
2026-02-17 17:40 -12.20710 161.33488 38853 ft 478 kts 153°
2026-02-17 17:41 -12.32749 161.39199 38848 ft 478 kts 153°
2026-02-17 17:42 -12.38790 161.42067 38855 ft 477 kts 153°
2026-02-17 17:43 -12.47822 161.46356 38854 ft 477 kts 153°
2026-02-17 17:44 -12.59830 161.52065 38853 ft 476 kts 153°
2026-02-17 17:44 -12.65790 161.54901 38852 ft 475 kts 153°
2026-02-17 17:45 -12.77809 161.60624 38852 ft 475 kts 153°
2026-02-17 17:47 -12.95751 161.69178 38852 ft 475 kts 153°
2026-02-17 17:47 -13.01746 161.72040 38855 ft 475 kts 153°
2026-02-17 17:48 -13.07709 161.74888 38856 ft 474 kts 153°
2026-02-17 17:48 -13.13713 161.77756 38852 ft 474 kts 153°
2026-02-17 17:49 -13.19679 161.80608 38854 ft 474 kts 153°
2026-02-17 17:49 -13.25657 161.83468 38856 ft 474 kts 153°
2026-02-17 17:50 -13.30632 161.85849 38853 ft 475 kts 153°
2026-02-17 17:50 -13.39648 161.90166 38852 ft 475 kts 153°
2026-02-17 17:51 -13.46585 161.93490 38854 ft 475 kts 153°
2026-02-17 17:51 -13.51565 161.95878 38852 ft 475 kts 154°
2026-02-17 17:52 -13.57555 161.98752 38852 ft 474 kts 154°
2026-02-17 17:53 -13.66525 162.03058 38855 ft 474 kts 154°
2026-02-17 17:53 -13.72522 162.05940 38857 ft 474 kts 154°
2026-02-17 17:54 -13.78484 162.08806 38859 ft 474 kts 154°
2026-02-17 17:54 -13.87449 162.13118 38859 ft 473 kts 154°
2026-02-17 17:55 -13.93417 162.15991 38859 ft 473 kts 154°
2026-02-17 17:55 -13.99360 162.18854 38860 ft 473 kts 154°
2026-02-17 17:56 -14.05316 162.21713 38858 ft 473 kts 155°
2026-02-17 17:56 -14.11305 162.24576 38856 ft 474 kts 155°
2026-02-17 17:57 -14.17264 162.27430 38860 ft 474 kts 155°
2026-02-17 17:57 -14.23261 162.30306 38859 ft 474 kts 155°
2026-02-17 17:58 -14.29232 162.33171 38857 ft 474 kts 155°
2026-02-17 17:59 -14.38164 162.37459 38859 ft 474 kts 155°
2026-02-17 17:59 -14.44146 162.40334 38860 ft 475 kts 155°
2026-02-17 18:00 -14.50143 162.43217 38857 ft 475 kts 155°
2026-02-17 18:00 -14.56141 162.46102 38860 ft 476 kts 155°
2026-02-17 18:01 -14.62178 162.49008 38862 ft 476 kts 155°
2026-02-17 18:01 -14.68136 162.51878 38855 ft 477 kts 155°
2026-02-17 18:02 -14.74166 162.54784 38855 ft 477 kts 155°
2026-02-17 18:02 -14.83196 162.59138 38853 ft 478 kts 155°
2026-02-17 18:03 -14.89224 162.62048 38870 ft 478 kts 155°
2026-02-17 18:03 -14.95238 162.64952 38851 ft 478 kts 155°
2026-02-17 18:04 -15.01256 162.67861 38858 ft 479 kts 155°
2026-02-17 18:04 -15.07300 162.70784 38857 ft 479 kts 155°
2026-02-17 18:05 -15.13363 162.73718 38856 ft 479 kts 155°
2026-02-17 18:05 -15.19399 162.76641 38857 ft 479 kts 155°
2026-02-17 18:06 -15.25412 162.79554 38855 ft 479 kts 155°
2026-02-17 18:07 -15.34506 162.83964 38851 ft 479 kts 155°
2026-02-17 18:07 -15.40515 162.86880 38865 ft 479 kts 155°
2026-02-17 18:08 -15.46565 162.89817 38848 ft 479 kts 155°
2026-02-17 18:08 -15.52577 162.92739 38866 ft 479 kts 155°
2026-02-17 18:09 -15.58635 162.95684 38852 ft 480 kts 155°
2026-02-17 18:09 -15.64698 162.98634 38851 ft 480 kts 155°
2026-02-17 18:10 -15.70713 163.01562 38866 ft 480 kts 155°
2026-02-17 18:10 -15.79788 163.05984 38848 ft 481 kts 155°
2026-02-17 18:11 -15.85864 163.08947 38868 ft 481 kts 155°
2026-02-17 18:11 -15.91892 163.11889 38846 ft 481 kts 155°
2026-02-17 18:12 -15.97984 163.14864 38860 ft 481 kts 155°
2026-02-17 18:12 -16.04014 163.17811 38857 ft 482 kts 155°
2026-02-17 18:13 -16.10093 163.20783 38846 ft 482 kts 155°
2026-02-17 18:13 -16.16129 163.23737 38867 ft 482 kts 155°
2026-02-17 18:14 -16.22221 163.26719 38850 ft 482 kts 155°
2026-02-17 18:15 -16.31287 163.31162 38866 ft 482 kts 155°
2026-02-17 18:15 -16.37372 163.34146 38852 ft 482 kts 155°
2026-02-17 18:16 -16.43444 163.37127 38864 ft 482 kts 155°
2026-02-17 18:16 -16.49510 163.40106 38867 ft 482 kts 155°
2026-02-17 18:17 -16.55545 163.43072 38840 ft 482 kts 155°
2026-02-17 18:17 -16.61644 163.46072 38859 ft 482 kts 155°
2026-02-17 18:18 -16.67667 163.49038 38857 ft 483 kts 155°
2026-02-17 18:18 -16.76794 163.53536 38862 ft 483 kts 155°
2026-02-17 18:19 -16.82867 163.56529 38861 ft 483 kts 156°
2026-02-17 18:19 -16.88974 163.59543 38846 ft 484 kts 156°
2026-02-17 18:20 -16.95021 163.62527 38859 ft 484 kts 156°
2026-02-17 18:20 -17.01108 163.65534 38845 ft 485 kts 155°
2026-02-17 18:21 -17.07210 163.68560 38857 ft 485 kts 156°
2026-02-17 18:21 -17.13320 163.71591 38860 ft 485 kts 156°
2026-02-17 18:22 -17.19382 163.74597 38842 ft 486 kts 156°
2026-02-17 18:23 -17.28571 163.79179 38859 ft 487 kts 156°
2026-02-17 18:23 -17.34671 163.82209 38842 ft 487 kts 156°
2026-02-17 18:24 -17.40836 163.85271 38858 ft 488 kts 156°
2026-02-17 18:24 -17.46943 163.88311 38853 ft 488 kts 156°
2026-02-17 18:25 -17.53068 163.91350 38855 ft 488 kts 156°
2026-02-17 18:25 -17.59244 163.94397 38859 ft 488 kts 156°
2026-02-17 18:26 -17.65378 163.97429 38852 ft 489 kts 156°
2026-02-17 18:26 -17.74563 164.02004 38854 ft 489 kts 156°
2026-02-17 18:27 -17.80740 164.05087 38854 ft 490 kts 156°
2026-02-17 18:27 -17.86892 164.08158 38858 ft 490 kts 156°
2026-02-17 18:28 -17.93013 164.11217 38851 ft 489 kts 156°
2026-02-17 18:28 -17.99165 164.14294 38853 ft 488 kts 156°
2026-02-17 18:29 -18.05276 164.17355 38851 ft 488 kts 156°
2026-02-17 18:29 -18.11408 164.20423 38851 ft 487 kts 156°
2026-02-17 18:30 -18.17514 164.23483 38852 ft 486 kts 156°
2026-02-17 18:31 -18.26656 164.28069 38857 ft 484 kts 156°
2026-02-17 18:31 -18.32709 164.31113 38852 ft 484 kts 156°
2026-02-17 18:32 -18.38803 164.34173 38840 ft 484 kts 156°
2026-02-17 18:32 -18.44845 164.37213 38860 ft 483 kts 156°
2026-02-17 18:33 -18.50889 164.40255 38844 ft 483 kts 156°
2026-02-17 18:33 -18.56978 164.43323 38847 ft 483 kts 156°
2026-02-17 18:34 -18.63004 164.46361 38850 ft 483 kts 156°
2026-02-17 18:34 -18.72115 164.50959 38848 ft 484 kts 156°
2026-02-17 18:35 -18.78183 164.54025 38848 ft 484 kts 156°
2026-02-17 18:35 -18.84285 164.57113 38845 ft 485 kts 156°
2026-02-17 18:36 -18.90403 164.60208 38858 ft 487 kts 156°
2026-02-17 18:36 -18.96487 164.63299 38839 ft 488 kts 156°
2026-02-17 18:37 -19.02637 164.66406 38846 ft 490 kts 156°
2026-02-17 18:37 -19.08773 164.69518 38850 ft 491 kts 156°
2026-02-17 18:38 -19.14923 164.72639 38843 ft 492 kts 156°
2026-02-17 18:39 -19.27269 164.78958 38847 ft 494 kts 156°
2026-02-17 18:39 -19.32413 164.81596 38846 ft 495 kts 156°
2026-02-17 18:40 -19.38618 164.84756 38858 ft 495 kts 156°
2026-02-17 18:41 -19.47979 164.89522 38839 ft 496 kts 156°
2026-02-17 18:41 -19.55197 164.93208 38854 ft 497 kts 156°
2026-02-17 18:42 -19.60439 164.95887 38852 ft 498 kts 156°
2026-02-17 18:42 -19.69807 165.00678 38850 ft 500 kts 156°
2026-02-17 18:43 -19.76044 165.03874 38852 ft 500 kts 156°
2026-02-17 18:43 -19.82321 165.07091 38840 ft 500 kts 156°
2026-02-17 18:44 -19.88563 165.10288 38852 ft 500 kts 156°
2026-02-17 18:44 -19.94834 165.13508 38844 ft 500 kts 156°
2026-02-17 18:45 -20.01121 165.16710 38847 ft 500 kts 157°
2026-02-17 18:45 -20.04885 165.18603 38849 ft 500 kts 157°
2026-02-17 18:46 -20.11170 165.21803 38848 ft 500 kts 156°
2026-02-17 18:47 -20.20561 165.26667 38851 ft 501 kts 156°
2026-02-17 18:47 -20.26819 165.29928 38837 ft 501 kts 156°
2026-02-17 18:48 -20.33089 165.33203 38847 ft 502 kts 156°
2026-02-17 18:48 -20.39371 165.36452 38835 ft 503 kts 156°
2026-02-17 18:49 -20.45626 165.39699 38852 ft 503 kts 156°
2026-02-17 18:49 -20.51921 165.42969 38846 ft 503 kts 156°
2026-02-17 18:50 -20.58257 165.46264 38859 ft 502 kts 156°
2026-02-17 18:50 -20.67615 165.51138 38857 ft 501 kts 156°
2026-02-17 18:51 -20.73875 165.54405 38856 ft 500 kts 156°
2026-02-17 18:51 -20.80119 165.57666 38840 ft 500 kts 156°
2026-02-17 18:52 -20.86368 165.60932 38844 ft 500 kts 156°
2026-02-17 18:52 -20.92606 165.64196 38845 ft 499 kts 156°
2026-02-17 18:53 -20.98844 165.67463 38857 ft 499 kts 156°
2026-02-17 18:53 -21.05087 165.70735 38849 ft 499 kts 156°
2026-02-17 18:54 -21.11319 165.74005 38852 ft 499 kts 156°
2026-02-17 18:55 -21.20672 165.78918 38858 ft 499 kts 156°
2026-02-17 18:55 -21.26896 165.82191 38862 ft 498 kts 156°
2026-02-17 18:56 -21.33117 165.85466 38857 ft 498 kts 156°
2026-02-17 18:56 -21.39342 165.88746 38856 ft 498 kts 156°
2026-02-17 18:57 -21.45552 165.92022 38856 ft 497 kts 156°
2026-02-17 18:57 -21.51765 165.95303 38858 ft 497 kts 156°
2026-02-17 18:58 -21.57967 165.98581 38853 ft 497 kts 156°
2026-02-17 18:58 -21.67278 166.03506 38853 ft 497 kts 156°
2026-02-17 18:59 -21.73478 166.06789 38860 ft 497 kts 156°
2026-02-17 18:59 -21.79680 166.10076 38856 ft 497 kts 156°
2026-02-17 19:00 -21.85874 166.13363 38853 ft 496 kts 156°
2026-02-17 19:00 -21.91844 166.16535 38856 ft 496 kts 156°
2026-02-17 19:01 -21.98045 166.19832 38857 ft 496 kts 156°
2026-02-17 19:01 -22.04210 166.23120 38858 ft 496 kts 156°
2026-02-17 19:02 -22.10380 166.26435 38857 ft 496 kts 156°
2026-02-17 19:03 -22.19669 166.31432 38857 ft 497 kts 156°
2026-02-17 19:03 -22.25848 166.34756 38857 ft 497 kts 156°
2026-02-17 19:04 -22.32011 166.38075 38862 ft 497 kts 156°
2026-02-17 19:04 -22.38226 166.41425 38861 ft 497 kts 156°
2026-02-17 19:05 -22.44392 166.44753 38863 ft 498 kts 156°
2026-02-17 19:05 -22.50616 166.48116 38858 ft 498 kts 156°
2026-02-17 19:06 -22.56840 166.51481 38859 ft 499 kts 156°
2026-02-17 19:06 -22.66128 166.56510 38861 ft 500 kts 156°
2026-02-17 19:07 -22.72375 166.59898 38864 ft 500 kts 156°
2026-02-17 19:08 -22.81690 166.64954 38871 ft 500 kts 156°
2026-02-17 19:08 -22.87882 166.68320 38871 ft 501 kts 156°
2026-02-17 19:09 -22.94149 166.71729 38877 ft 501 kts 156°
2026-02-17 19:09 -23.00364 166.75114 38882 ft 502 kts 156°
2026-02-17 19:10 -23.06614 166.78522 38878 ft 502 kts 156°
2026-02-17 19:10 -23.15968 166.83628 38883 ft 502 kts 156°
2026-02-17 19:11 -23.22236 166.87055 38884 ft 502 kts 156°
2026-02-17 19:11 -23.28474 166.90469 38885 ft 502 kts 156°
2026-02-17 19:12 -23.34739 166.93902 38885 ft 502 kts 156°
2026-02-17 19:12 -23.40974 166.97321 38883 ft 502 kts 156°
2026-02-17 19:13 -23.47195 167.00736 38889 ft 502 kts 156°
2026-02-17 19:13 -23.53418 167.04156 38894 ft 502 kts 157°
2026-02-17 19:14 -23.59664 167.07592 38895 ft 502 kts 157°
2026-02-17 19:15 -23.68983 167.12726 38888 ft 502 kts 157°
2026-02-17 19:15 -23.75243 167.16179 38890 ft 502 kts 157°
2026-02-17 19:16 -23.81487 167.19627 38892 ft 502 kts 157°
2026-02-17 19:16 -23.87680 167.23050 38891 ft 502 kts 157°
2026-02-17 19:17 -23.93938 167.26513 38893 ft 502 kts 157°
2026-02-17 19:17 -24.00149 167.29955 38899 ft 502 kts 157°
2026-02-17 19:18 -24.06401 167.33423 38896 ft 502 kts 157°
2026-02-17 19:18 -24.15741 167.38610 38895 ft 503 kts 157°
2026-02-17 19:19 -24.21939 167.42057 38899 ft 503 kts 157°
2026-02-17 19:19 -24.28208 167.45548 38893 ft 502 kts 157°
2026-02-17 19:20 -24.34426 167.49014 38894 ft 502 kts 157°
2026-02-17 19:20 -24.40623 167.52472 38900 ft 501 kts 157°
2026-02-17 19:21 -24.46865 167.55958 38900 ft 501 kts 157°
2026-02-17 19:21 -24.53035 167.59409 38904 ft 501 kts 157°
2026-02-17 19:22 -24.59283 167.62907 38906 ft 501 kts 157°
2026-02-17 19:23 -24.68540 167.68097 38899 ft 500 kts 157°
2026-02-17 19:23 -24.74765 167.71592 38905 ft 500 kts 157°
2026-02-17 19:24 -24.80987 167.75091 38901 ft 500 kts 156°
2026-02-17 19:24 -24.87149 167.78565 38905 ft 500 kts 156°
2026-02-17 19:25 -24.93333 167.82059 38903 ft 500 kts 156°
2026-02-17 19:25 -24.99544 167.85571 38905 ft 500 kts 157°
2026-02-17 19:26 -25.05696 167.89052 38908 ft 500 kts 157°
2026-02-17 19:26 -25.14979 167.94314 38906 ft 500 kts 157°
2026-02-17 19:27 -25.21154 167.97819 38905 ft 500 kts 157°
2026-02-17 19:27 -25.26301 168.00743 38909 ft 500 kts 157°
2026-02-17 19:28 -25.32520 168.04280 38911 ft 500 kts 157°
2026-02-17 19:28 -25.38680 168.07788 38910 ft 500 kts 157°
2026-02-17 19:29 -25.44843 168.11302 38910 ft 500 kts 157°
2026-02-17 19:29 -25.51046 168.14842 38912 ft 500 kts 157°
2026-02-17 19:30 -25.57190 168.18353 38914 ft 500 kts 157°
2026-02-17 19:31 -25.66465 168.23661 38911 ft 500 kts 157°
2026-02-17 19:31 -25.72671 168.27218 38915 ft 500 kts 157°
2026-02-17 19:32 -25.78824 168.30749 38915 ft 500 kts 157°
2026-02-17 19:32 -25.85012 168.34304 38916 ft 500 kts 158°
2026-02-17 19:33 -25.91172 168.37846 38920 ft 500 kts 158°
2026-02-17 19:33 -25.97342 168.41399 38919 ft 500 kts 158°
2026-02-17 19:34 -26.03546 168.44976 38920 ft 501 kts 158°
2026-02-17 19:34 -26.12800 168.50319 38922 ft 501 kts 158°
2026-02-17 19:35 -26.18970 168.53887 38922 ft 501 kts 158°
2026-02-17 19:35 -26.25198 168.57492 38920 ft 501 kts 158°
2026-02-17 19:36 -26.31367 168.61068 38924 ft 501 kts 158°
2026-02-17 19:36 -26.37552 168.64658 38920 ft 502 kts 158°
2026-02-17 19:37 -26.43766 168.68268 38921 ft 502 kts 158°
2026-02-17 19:37 -26.49932 168.71856 38922 ft 502 kts 158°
2026-02-17 19:38 -26.56133 168.75468 38922 ft 503 kts 158°
2026-02-17 19:39 -26.65445 168.80900 38920 ft 503 kts 158°
2026-02-17 19:39 -26.71629 168.84514 38927 ft 504 kts 158°
2026-02-17 19:40 -26.77847 168.88151 38926 ft 504 kts 158°
2026-02-17 19:40 -26.84090 168.91808 38923 ft 504 kts 158°
2026-02-17 19:41 -26.90257 168.95425 38930 ft 504 kts 158°
2026-02-17 19:41 -26.96523 168.99105 38926 ft 504 kts 158°
2026-02-17 19:42 -27.02691 169.02732 38929 ft 505 kts 158°
2026-02-17 19:42 -27.12057 169.08248 38924 ft 505 kts 158°
2026-02-17 19:43 -27.18242 169.11899 38928 ft 505 kts 159°
2026-02-17 19:43 -27.24488 169.15590 38927 ft 505 kts 159°
2026-02-17 19:44 -27.30708 169.19270 38927 ft 505 kts 159°
2026-02-17 19:44 -27.36897 169.22937 38930 ft 505 kts 159°
2026-02-17 19:45 -27.43100 169.26617 38928 ft 505 kts 159°
2026-02-17 19:45 -27.49337 169.30321 38928 ft 506 kts 159°
2026-02-17 19:46 -27.55575 169.34032 38930 ft 506 kts 159°
2026-02-17 19:47 -27.64884 169.39577 38932 ft 506 kts 159°
2026-02-17 19:47 -27.71131 169.43304 38925 ft 506 kts 159°
2026-02-17 19:48 -27.77347 169.47019 38932 ft 506 kts 159°
2026-02-17 19:48 -27.83557 169.50733 38933 ft 506 kts 159°
2026-02-17 19:49 -27.89805 169.54477 38931 ft 506 kts 159°
2026-02-17 19:49 -27.96004 169.58195 38932 ft 507 kts 159°
2026-02-17 19:50 -28.02210 169.61922 38931 ft 507 kts 159°
2026-02-17 19:50 -28.11587 169.67564 38932 ft 507 kts 159°
2026-02-17 19:51 -28.17800 169.71307 38932 ft 507 kts 159°
2026-02-17 19:51 -28.24041 169.75073 38931 ft 508 kts 159°
2026-02-17 19:52 -28.30267 169.78835 38931 ft 508 kts 159°
2026-02-17 19:52 -28.36514 169.82614 38933 ft 508 kts 159°
2026-02-17 19:53 -28.42745 169.86389 38933 ft 508 kts 159°
2026-02-17 19:53 -28.48964 169.90162 38933 ft 508 kts 159°
2026-02-17 19:54 -28.55198 169.93949 38931 ft 508 kts 159°
2026-02-17 19:55 -28.64533 169.99629 38933 ft 508 kts 159°
2026-02-17 19:55 -28.70798 170.03448 38932 ft 509 kts 159°
2026-02-17 19:56 -28.77014 170.07241 38935 ft 509 kts 159°
2026-02-17 19:56 -28.83248 170.11052 38934 ft 509 kts 159°
2026-02-17 19:57 -28.89494 170.14875 38935 ft 509 kts 160°
2026-02-17 19:57 -28.95699 170.18678 38934 ft 509 kts 160°
2026-02-17 19:58 -29.01945 170.22511 38929 ft 509 kts 160°
2026-02-17 19:58 -29.11280 170.28250 38929 ft 509 kts 160°
2026-02-17 19:59 -29.17540 170.32106 38937 ft 509 kts 160°
2026-02-17 19:59 -29.23796 170.35964 38934 ft 509 kts 160°
2026-02-17 20:00 -29.29988 170.39787 38930 ft 509 kts 160°
2026-02-17 20:00 -29.36255 170.43663 38931 ft 509 kts 160°
2026-02-17 20:01 -29.42477 170.47516 38931 ft 509 kts 160°
2026-02-17 20:01 -29.48717 170.51386 38933 ft 510 kts 160°
2026-02-17 20:02 -29.54891 170.55220 38934 ft 510 kts 160°
2026-02-17 20:03 -29.64234 170.61036 38930 ft 510 kts 160°
2026-02-17 20:03 -29.70515 170.64954 38931 ft 509 kts 160°
2026-02-17 20:04 -29.76729 170.68827 38929 ft 509 kts 160°
2026-02-17 20:04 -29.82928 170.72700 38928 ft 509 kts 160°
2026-02-17 20:05 -29.89204 170.76629 38930 ft 509 kts 160°
2026-02-17 20:05 -29.95397 170.80511 38930 ft 509 kts 160°
2026-02-17 20:06 -30.01658 170.84441 38926 ft 509 kts 160°
2026-02-17 20:06 -30.10977 170.90302 38926 ft 509 kts 160°
2026-02-17 20:07 -30.17180 170.94211 38923 ft 510 kts 160°
2026-02-17 20:07 -30.23423 170.98151 38928 ft 510 kts 160°
2026-02-17 20:08 -30.29619 171.02066 38926 ft 510 kts 160°
2026-02-17 20:08 -30.35851 171.06011 38925 ft 510 kts 160°
2026-02-17 20:09 -30.42074 171.09954 38925 ft 510 kts 160°
2026-02-17 20:09 -30.48252 171.13875 38924 ft 510 kts 160°
2026-02-17 20:10 -30.54473 171.17830 38924 ft 509 kts 160°
2026-02-17 20:11 -30.63830 171.23789 38918 ft 509 kts 160°
2026-02-17 20:11 -30.70024 171.27741 38920 ft 509 kts 160°
2026-02-17 20:12 -30.76191 171.31683 38916 ft 509 kts 160°
2026-02-17 20:12 -30.82410 171.35662 38919 ft 509 kts 160°
2026-02-17 20:13 -30.88642 171.39653 38921 ft 509 kts 160°
2026-02-17 20:13 -30.94826 171.43620 38920 ft 509 kts 160°
2026-02-17 20:14 -31.01020 171.47602 38917 ft 509 kts 159°
2026-02-17 20:14 -31.10310 171.53585 38912 ft 510 kts 159°
2026-02-17 20:15 -31.16524 171.57594 38917 ft 510 kts 159°
2026-02-17 20:15 -31.22733 171.61606 38909 ft 510 kts 159°
2026-02-17 20:16 -31.27902 171.64951 38917 ft 511 kts 159°
2026-02-17 20:16 -31.35166 171.69658 38913 ft 511 kts 159°
2026-02-17 20:17 -31.40392 171.73049 38911 ft 512 kts 159°
2026-02-17 20:17 -31.46599 171.77084 38911 ft 512 kts 159°
2026-02-17 20:18 -31.52814 171.81129 38912 ft 513 kts 159°
2026-02-17 20:19 -31.62179 171.87238 38908 ft 513 kts 158°
2026-02-17 20:19 -31.68401 171.91303 38906 ft 514 kts 158°
2026-02-17 20:20 -31.74676 171.95410 38907 ft 514 kts 158°
2026-02-17 20:20 -31.80895 171.99486 38903 ft 514 kts 158°
2026-02-17 20:21 -31.87162 172.03600 38906 ft 514 kts 158°
2026-02-17 20:21 -31.93386 172.07693 38906 ft 515 kts 158°
2026-02-17 20:22 -31.99658 172.11824 38897 ft 515 kts 158°
2026-02-17 20:22 -32.09025 172.18005 38903 ft 515 kts 158°
2026-02-17 20:23 -32.15246 172.22118 38904 ft 515 kts 158°
2026-02-17 20:23 -32.21529 172.26279 38899 ft 515 kts 157°
2026-02-17 20:24 -32.27758 172.30411 38899 ft 515 kts 157°
2026-02-17 20:24 -32.34014 172.34567 38898 ft 515 kts 157°
2026-02-17 20:25 -32.40264 172.38727 38896 ft 515 kts 157°
2026-02-17 20:25 -32.46497 172.42881 38900 ft 515 kts 157°
2026-02-17 20:26 -32.52755 172.47058 38890 ft 516 kts 157°
2026-02-17 20:27 -32.62140 172.53336 38889 ft 516 kts 157°
2026-02-17 20:27 -32.68349 172.57498 38890 ft 516 kts 157°
2026-02-17 20:28 -32.74574 172.61677 38891 ft 516 kts 157°
2026-02-17 20:28 -32.83916 172.67962 38885 ft 515 kts 156°
2026-02-17 20:29 -32.90094 172.72126 38883 ft 515 kts 156°
2026-02-17 20:29 -32.96309 172.76322 38883 ft 515 kts 156°
2026-02-17 20:30 -33.02530 172.80529 38883 ft 515 kts 156°
2026-02-17 20:31 -33.11851 172.86846 38878 ft 515 kts 156°
2026-02-17 20:31 -33.18055 172.91059 38882 ft 515 kts 156°
2026-02-17 20:32 -33.24322 172.95321 38879 ft 515 kts 156°
2026-02-17 20:32 -33.30498 172.99529 38881 ft 515 kts 156°
2026-02-17 20:33 -33.36707 173.03766 38877 ft 515 kts 156°
2026-02-17 20:33 -33.42924 173.08016 38875 ft 515 kts 156°
2026-02-17 20:34 -33.49168 173.12292 38875 ft 515 kts 156°
2026-02-17 20:34 -33.58466 173.18671 38872 ft 514 kts 156°
2026-02-17 20:35 -33.64662 173.22931 38873 ft 514 kts 156°
2026-02-17 20:35 -33.70898 173.27227 38872 ft 514 kts 156°
2026-02-17 20:36 -33.77085 173.31495 38877 ft 514 kts 156°
2026-02-17 20:36 -33.83257 173.35760 38869 ft 514 kts 156°
2026-02-17 20:37 -33.89476 173.40065 38868 ft 514 kts 156°
2026-02-17 20:37 -33.95661 173.44345 38864 ft 514 kts 156°
2026-02-17 20:38 -34.01892 173.48642 38865 ft 515 kts 156°
2026-02-17 20:39 -34.11229 173.55052 38861 ft 515 kts 156°
2026-02-17 20:39 -34.17478 173.59319 38859 ft 515 kts 156°
2026-02-17 20:40 -34.23701 173.63548 38858 ft 515 kts 156°
2026-02-17 20:40 -34.29937 173.67771 38859 ft 515 kts 156°
2026-02-17 20:41 -34.36213 173.72003 38853 ft 515 kts 156°
2026-02-17 20:41 -34.42447 173.76186 38854 ft 515 kts 156°
2026-02-17 20:42 -34.48758 173.80396 38855 ft 515 kts 156°
2026-02-17 20:42 -34.58166 173.86621 38854 ft 516 kts 156°
2026-02-17 20:43 -34.64484 173.90765 38853 ft 516 kts 156°
2026-02-17 20:43 -34.70770 173.94860 38847 ft 516 kts 156°
2026-02-17 20:44 -34.77149 173.98990 38850 ft 516 kts 156°
2026-02-17 20:44 -34.83481 174.03063 38847 ft 516 kts 156°
2026-02-17 20:45 -34.89842 174.07134 38844 ft 517 kts 156°
2026-02-17 20:45 -34.96229 174.11203 38842 ft 517 kts 156°
2026-02-17 20:46 -35.02580 174.15230 38841 ft 517 kts 156°
2026-02-17 20:47 -35.12141 174.21253 38843 ft 517 kts 157°
2026-02-17 20:47 -35.18542 174.25259 38839 ft 517 kts 157°
2026-02-17 20:48 -35.24992 174.29276 38840 ft 517 kts 157°
2026-02-17 20:48 -35.31401 174.33248 38839 ft 518 kts 157°
2026-02-17 20:49 -35.37821 174.37210 38836 ft 518 kts 157°
2026-02-17 20:49 -35.44271 174.41176 38837 ft 518 kts 157°
2026-02-17 20:50 -35.50725 174.45127 38832 ft 518 kts 157°
2026-02-17 20:50 -35.60390 174.51010 38831 ft 518 kts 157°
2026-02-17 20:51 -35.66881 174.54940 38829 ft 518 kts 157°
2026-02-17 20:51 -35.73309 174.58814 38827 ft 518 kts 157°
2026-02-17 20:52 -35.79833 174.62730 38826 ft 519 kts 157°
2026-02-17 20:52 -35.86304 174.66598 38826 ft 519 kts 157°
2026-02-17 20:53 -35.92788 174.70457 38827 ft 520 kts 157°
2026-02-17 20:53 -35.99339 174.74338 38823 ft 520 kts 157°
2026-02-17 20:54 -36.05838 174.78173 38818 ft 520 kts 157°
2026-02-17 20:55 -36.15628 174.83914 38824 ft 520 kts 157°
2026-02-17 20:55 -36.22211 174.87754 38822 ft 520 kts 158°
2026-02-17 20:56 -36.28718 174.91535 38814 ft 520 kts 158°
2026-02-17 20:56 -36.35297 174.95341 38815 ft 520 kts 158°
2026-02-17 20:57 -36.41830 174.99105 38813 ft 521 kts 158°
2026-02-17 20:57 -36.48425 175.02889 38807 ft 521 kts 158°
2026-02-17 20:58 -36.54996 175.06644 38810 ft 521 kts 158°
2026-02-17 20:58 -36.64912 175.12280 38808 ft 521 kts 158°
2026-02-17 20:59 -36.71492 175.16001 38812 ft 521 kts 158°
2026-02-17 20:59 -36.78113 175.19731 38811 ft 522 kts 158°
2026-02-17 21:00 -36.84708 175.23432 38811 ft 522 kts 158°
2026-02-17 21:00 -36.91353 175.27145 38811 ft 522 kts 158°
2026-02-17 21:01 -36.97995 175.30843 38807 ft 522 kts 158°
2026-02-17 21:02 -37.07938 175.36357 38806 ft 522 kts 158°
2026-02-17 21:02 -37.17930 175.41866 38803 ft 522 kts 158°
2026-02-17 21:03 -37.24565 175.45510 38807 ft 522 kts 158°
2026-02-17 21:03 -37.31208 175.49144 38806 ft 523 kts 158°
2026-02-17 21:04 -37.37914 175.52792 38803 ft 523 kts 158°
2026-02-17 21:04 -37.44575 175.56397 38802 ft 522 kts 158°
2026-02-17 21:05 -37.51249 175.59994 38806 ft 523 kts 158°
2026-02-17 21:05 -37.57963 175.63600 38804 ft 523 kts 158°
2026-02-17 21:06 -37.63520 175.66576 38803 ft 523 kts 158°
2026-02-17 21:07 -37.68199 175.69073 38802 ft 523 kts 158°
2026-02-17 21:07 -37.74777 175.72577 38802 ft 523 kts 159°
2026-02-17 21:08 -37.81486 175.76141 38800 ft 523 kts 159°
2026-02-17 21:08 -37.88219 175.79708 38800 ft 524 kts 159°
2026-02-17 21:09 -37.94926 175.83248 38797 ft 524 kts 159°
2026-02-17 21:09 -38.01682 175.86802 38797 ft 524 kts 159°
2026-02-17 21:10 -38.08374 175.90312 38798 ft 524 kts 159°
2026-02-17 21:10 -38.18495 175.95599 38795 ft 525 kts 159°
2026-02-17 21:11 -38.25279 175.99130 38787 ft 525 kts 159°
2026-02-17 21:11 -38.31999 176.02617 38789 ft 525 kts 159°
2026-02-17 21:12 -38.38816 176.06143 38787 ft 525 kts 159°
2026-02-17 21:12 -38.45552 176.09619 38787 ft 526 kts 159°
2026-02-17 21:13 -38.52373 176.13132 38788 ft 526 kts 159°
2026-02-17 21:13 -38.59131 176.16601 38784 ft 526 kts 159°
2026-02-17 21:14 -38.65950 176.20092 38786 ft 526 kts 159°
2026-02-17 21:15 -38.76151 176.25282 38783 ft 526 kts 159°
2026-02-17 21:15 -38.82942 176.28718 38783 ft 526 kts 159°
2026-02-17 21:16 -38.89740 176.32142 38782 ft 526 kts 159°
2026-02-17 21:16 -38.96569 176.35570 38783 ft 527 kts 159°
2026-02-17 21:17 -39.03424 176.38998 38776 ft 527 kts 159°
2026-02-17 21:17 -39.10241 176.42395 38775 ft 527 kts 159°
2026-02-17 21:18 -39.17064 176.45786 38774 ft 528 kts 159°
2026-02-17 21:18 -39.27361 176.50873 38767 ft 528 kts 160°
2026-02-17 21:19 -39.37636 176.55936 38764 ft 528 kts 160°
2026-02-17 21:20 -39.44513 176.59328 38772 ft 528 kts 160°
2026-02-17 21:20 -39.51419 176.62727 38765 ft 529 kts 160°
2026-02-17 21:21 -39.58267 176.66086 38768 ft 529 kts 160°
2026-02-17 21:21 -39.65184 176.69473 38763 ft 529 kts 160°
2026-02-17 21:22 -39.72041 176.72819 38768 ft 530 kts 160°
2026-02-17 21:22 -39.82412 176.77866 38764 ft 530 kts 160°
2026-02-17 21:23 -39.89327 176.81219 38762 ft 531 kts 160°
2026-02-17 21:23 -39.96274 176.84580 38762 ft 531 kts 160°
2026-02-17 21:24 -40.03169 176.87907 38760 ft 532 kts 160°
2026-02-17 21:24 -40.10143 176.91264 38763 ft 532 kts 160°
2026-02-17 21:25 -40.17068 176.94590 38763 ft 532 kts 160°
2026-02-17 21:25 -40.24057 176.97938 38766 ft 533 kts 160°
2026-02-17 21:26 -40.31003 177.01260 38765 ft 533 kts 160°
2026-02-17 21:27 -40.41447 177.06245 38761 ft 533 kts 161°
2026-02-17 21:27 -40.48415 177.09564 38758 ft 533 kts 161°
2026-02-17 21:28 -40.55358 177.12866 38758 ft 533 kts 161°
2026-02-17 21:28 -40.62364 177.16192 38762 ft 533 kts 161°
2026-02-17 21:29 -40.69338 177.19499 38757 ft 533 kts 161°
2026-02-17 21:29 -40.76327 177.22807 38761 ft 533 kts 161°
2026-02-17 21:30 -40.83262 177.26085 38761 ft 533 kts 161°
2026-02-17 21:30 -40.93774 177.31047 38756 ft 533 kts 161°
2026-02-17 21:31 -41.00722 177.34321 38758 ft 533 kts 161°
2026-02-17 21:31 -41.07739 177.37621 38761 ft 533 kts 161°
2026-02-17 21:32 -41.14700 177.40890 38761 ft 533 kts 161°
2026-02-17 21:32 -41.21707 177.44173 38755 ft 534 kts 161°
2026-02-17 21:33 -41.28736 177.47461 38757 ft 534 kts 161°
2026-02-17 21:33 -41.35713 177.50715 38752 ft 535 kts 161°
2026-02-17 21:34 -41.42751 177.53992 38758 ft 535 kts 161°
2026-02-17 21:35 -41.53326 177.58906 38752 ft 536 kts 161°
2026-02-17 21:35 -41.60337 177.62156 38749 ft 536 kts 161°
2026-02-17 21:36 -41.67417 177.65433 38754 ft 536 kts 161°
2026-02-17 21:36 -41.74444 177.68680 38757 ft 536 kts 161°
2026-02-17 21:37 -41.81508 177.71940 38753 ft 536 kts 162°
2026-02-17 21:37 -41.88577 177.75196 38756 ft 536 kts 162°
2026-02-17 21:38 -41.95602 177.78428 38755 ft 536 kts 162°
2026-02-17 21:38 -42.06157 177.83270 38753 ft 536 kts 162°
2026-02-17 21:39 -42.13240 177.86513 38754 ft 536 kts 162°
2026-02-17 21:39 -42.20325 177.89751 38755 ft 536 kts 162°
2026-02-17 21:40 -42.27352 177.92953 38755 ft 536 kts 162°
2026-02-17 21:40 -42.34430 177.96172 38759 ft 536 kts 162°
2026-02-17 21:41 -42.41470 177.99365 38758 ft 536 kts 162°
2026-02-17 21:41 -42.48593 178.02589 38757 ft 536 kts 162°
2026-02-17 21:42 -42.55637 178.05769 38754 ft 536 kts 162°
2026-02-17 21:43 -42.66245 178.10547 38759 ft 536 kts 162°
2026-02-17 21:43 -42.73298 178.13716 38758 ft 536 kts 162°
2026-02-17 21:44 -42.80403 178.16902 38761 ft 536 kts 162°
2026-02-17 21:44 -42.87468 178.20064 38763 ft 537 kts 162°
2026-02-17 21:45 -42.94615 178.23256 38758 ft 537 kts 162°
2026-02-17 21:45 -43.01678 178.26403 38757 ft 537 kts 162°
2026-02-17 21:46 -43.08821 178.29582 38758 ft 537 kts 163°
2026-02-17 21:46 -43.19465 178.34307 38760 ft 538 kts 163°
2026-02-17 21:47 -43.26564 178.37450 38758 ft 538 kts 163°
2026-02-17 21:47 -43.33673 178.40591 38760 ft 538 kts 163°
2026-02-17 21:48 -43.40824 178.43744 38761 ft 538 kts 163°
2026-02-17 21:48 -43.47919 178.46868 38762 ft 538 kts 163°
2026-02-17 21:49 -43.55065 178.50009 38759 ft 538 kts 163°
2026-02-17 21:49 -43.62191 178.53137 38764 ft 538 kts 163°
2026-02-17 21:50 -43.69329 178.56265 38764 ft 538 kts 163°
2026-02-17 21:51 -43.83628 178.62517 38767 ft 538 kts 163°
2026-02-17 21:51 -43.90732 178.65615 38766 ft 538 kts 163°
2026-02-17 21:52 -43.97921 178.68746 38767 ft 538 kts 163°
2026-02-17 21:52 -44.05042 178.71841 38766 ft 538 kts 163°
2026-02-17 21:53 -44.12159 178.74934 38766 ft 538 kts 163°
2026-02-17 21:53 -44.19294 178.78027 38769 ft 537 kts 163°
2026-02-17 21:54 -44.26446 178.81117 38769 ft 537 kts 163°
2026-02-17 21:55 -44.37151 178.85725 38765 ft 537 kts 164°
2026-02-17 21:55 -44.43107 178.88279 38771 ft 537 kts 164°
2026-02-17 21:56 -44.51455 178.91847 38768 ft 537 kts 164°
2026-02-17 21:56 -44.57385 178.94373 38766 ft 537 kts 164°
2026-02-17 21:57 -44.64554 178.97419 38766 ft 537 kts 164°
2026-02-17 21:57 -44.71741 179.00464 38765 ft 537 kts 164°
2026-02-17 21:58 -44.78860 179.03471 38766 ft 537 kts 164°
2026-02-17 21:58 -44.89593 179.07994 38766 ft 537 kts 164°
2026-02-17 21:59 -44.96785 179.11016 38766 ft 537 kts 164°
2026-02-17 21:59 -45.03912 179.14006 38768 ft 537 kts 164°
2026-02-17 22:00 -45.11100 179.17015 38765 ft 537 kts 165°
2026-02-17 22:00 -45.18246 179.19994 38765 ft 537 kts 165°
2026-02-17 22:01 -45.25391 179.22963 38762 ft 537 kts 165°
2026-02-17 22:01 -45.32572 179.25937 38763 ft 537 kts 165°
2026-02-17 22:02 -45.39749 179.28901 38764 ft 536 kts 165°
2026-02-17 22:03 -45.50529 179.33327 38761 ft 536 kts 165°
2026-02-17 22:03 -45.57678 179.36229 38766 ft 536 kts 165°
2026-02-17 22:04 -45.64869 179.39133 38769 ft 536 kts 165°
2026-02-17 22:04 -45.72055 179.42025 38760 ft 535 kts 165°
2026-02-17 22:05 -45.79188 179.44884 38762 ft 534 kts 165°
2026-02-17 22:05 -45.86360 179.47748 38762 ft 534 kts 165°
2026-02-17 22:06 -45.93509 179.50590 38767 ft 534 kts 165°
2026-02-17 22:06 -46.04198 179.54809 38767 ft 533 kts 165°
2026-02-17 22:07 -46.11397 179.57626 38767 ft 532 kts 165°
2026-02-17 22:07 -46.18536 179.60406 38766 ft 532 kts 165°
2026-02-17 22:08 -46.25666 179.63168 38764 ft 531 kts 165°
2026-02-17 22:08 -46.32783 179.65914 38766 ft 530 kts 165°
2026-02-17 22:09 -46.39956 179.68668 38770 ft 530 kts 166°
2026-02-17 22:09 -46.47040 179.71376 38769 ft 529 kts 166°
2026-02-17 22:10 -46.54186 179.74094 38771 ft 528 kts 166°
2026-02-17 22:11 -46.64837 179.78122 38772 ft 527 kts 166°
2026-02-17 22:11 -46.71893 179.80773 38771 ft 527 kts 166°
2026-02-17 22:12 -46.79019 179.83434 38773 ft 526 kts 166°
2026-02-17 22:12 -46.86073 179.86056 38773 ft 525 kts 166°
2026-02-17 22:13 -46.93190 179.88688 38775 ft 525 kts 166°
2026-02-17 22:13 -47.00233 179.91275 38777 ft 524 kts 166°
2026-02-17 22:14 -47.07346 179.93877 38778 ft 524 kts 166°
2026-02-17 22:14 -47.17949 179.97728 38778 ft 523 kts 166°
2026-02-17 22:15 -47.24990 -179.99733 38781 ft 523 kts 166°
2026-02-17 22:15 -47.32033 -179.97207 38784 ft 522 kts 166°
2026-02-17 22:16 -47.39139 -179.94673 38787 ft 522 kts 166°
2026-02-17 22:16 -47.46195 -179.92166 38788 ft 521 kts 166°
2026-02-17 22:17 -47.53196 -179.89689 38788 ft 520 kts 167°
2026-02-17 22:17 -47.60226 -179.87206 38789 ft 520 kts 167°
2026-02-17 22:18 -47.67288 -179.84721 38787 ft 519 kts 167°
2026-02-17 22:19 -47.77800 -179.81040 38794 ft 518 kts 167°
2026-02-17 22:19 -47.84812 -179.78599 38795 ft 517 kts 167°
2026-02-17 22:20 -47.91822 -179.76174 38797 ft 516 kts 167°
2026-02-17 22:20 -47.98797 -179.73773 38798 ft 516 kts 167°
2026-02-17 22:21 -48.05840 -179.71359 38800 ft 515 kts 167°
2026-02-17 22:21 -48.12800 -179.68986 38804 ft 515 kts 167°
2026-02-17 22:22 -48.19814 -179.66608 38803 ft 515 kts 167°
2026-02-17 22:22 -48.30266 -179.63089 38809 ft 515 kts 167°
2026-02-17 22:23 -48.37229 -179.60765 38811 ft 514 kts 167°
2026-02-17 22:23 -48.44257 -179.58435 38812 ft 514 kts 167°
2026-02-17 22:24 -48.51223 -179.56139 38813 ft 514 kts 168°
2026-02-17 22:24 -48.58175 -179.53860 38814 ft 513 kts 168°
2026-02-17 22:25 -48.65205 -179.51575 38820 ft 513 kts 168°
2026-02-17 22:25 -48.72151 -179.49331 38819 ft 513 kts 168°
2026-02-17 22:26 -48.79169 -179.47083 38822 ft 513 kts 168°
2026-02-17 22:27 -48.89628 -179.43760 38826 ft 513 kts 168°
2026-02-17 22:27 -48.96630 -179.41555 38827 ft 513 kts 168°
2026-02-17 22:28 -49.03606 -179.39372 38830 ft 513 kts 168°
2026-02-17 22:28 -49.10608 -179.37194 38844 ft 514 kts 168°
2026-02-17 22:29 -49.14607 -179.35951 38841 ft 517 kts 168°
2026-02-17 22:29 -49.21810 -179.33723 38838 ft 521 kts 168°